GFSGBSN_850_dewp_000.txt.gz
Dewpoint
-1 -1 -2 -2 -1 -0 0 1 1 1 0 -0 -1 -1 -3 -4 -5 -5 -5 -5 -9 -6 -6 -7 -2 -4 -6 -4 -4 -4 -4 -5 -7 -8 -7 -7 -7 -6 -4 -5 -6 -7 -8 -7 -7 -8 -9
0 -0 -1 -2 -1 -1 0 1 1 0 -0 -1 -2 -4 -5 -5 -5 -4 -4 -7 -8 -7 -8 -3 -1 -3 -6 -5 -4 -4 -4 -5 -7 -5 -5 -5 -4 -6 -5 -5 -6 -6 -6 -6 -6 -6 -6
2 -0 -1 -0 -0 -1 0 1 0 -0 -1 -2 -3 -4 -4 -3 -3 -3 -3 -5 -7 -7 -4 -2 -3 -4 -4 -4 -4 -4 -5 -5 -8 -5 -4 -4 -4 -7 -6 -5 -5 -5 -5 -7 -7 -6 -6
1 0 1 0 0 -1 -0 0 0 -0 -1 -1 -1 -1 -2 -3 -3 -3 -3 -5 -5 -4 -3 -2 -1 -3 -4 -4 -4 -5 -8 -8 -7 -5 -5 -4 -5 -6 -7 -6 -6 -7 -7 -6 -8 -6 -8
1 2 1 1 -0 -1 -1 -0 0 -0 -0 -0 -0 -1 -3 -2 -3 -3 -3 -3 -4 -3 -4 -3 -3 -3 -4 -4 -6 -7 -8 -10 -6 -5 -5 -5 -6 -7 -7 -8 -6 -6 -6 -6 -6 -5 -3
2 2 1 0 -1 -1 -1 -1 -0 0 0 0 -0 -1 -1 -2 -2 -2 -3 -4 -4 -4 -3 -3 -3 -4 -5 -5 -6 -6 -11 -6 -6 -7 -7 -7 -7 -7 -6 -6 -7 -4 -6 -4 -5 -5 -3
2 2 1 0 -1 -1 -2 -1 -1 -0 -0 -0 -1 -1 -2 -2 2 -0 -4 -4 -3 -5 -6 -6 -6 -6 -6 -6 -6 -6 -13 -6 -7 -9 -6 -5 -5 -5 -6 -6 -6 -5 -4 -2 -3 -4 -1
2 2 2 0 -1 -2 -2 -3 -1 -1 -1 -1 -1 -2 -2 -2 1 -0 -2 -1 -0 -0 -5 -5 -5 -6 -6 -6 -6 -5 -7 -6 -7 -6 -8 -4 -4 -6 -5 -5 -6 -5 -2 -4 -3 -3 -1
2 2 2 1 -0 -2 -2 -3 -3 -2 -1 -2 -2 -3 -3 -2 -3 -1 -0 -2 -1 -0 -5 -5 -5 -5 -6 -6 -5 -5 -5 -4 -6 -6 -5 -4 -6 -6 -6 -4 -3 -4 -4 -3 -1 -2 -2
0 1 2 1 0 -1 -2 -1 -3 -3 -2 -1 -2 -3 -3 -1 -4 -2 -2 -2 -3 1 -0 -3 -5 -6 -6 -7 -6 -3 -3 -4 -5 -5 -5 -4 -7 -5 -3 -3 -4 -1 -5 -3 -1 1 2
-3 -2 0 1 0 -1 -2 -1 -2 -3 -4 -2 -2 -2 -3 -4 -5 -4 -3 -4 -3 3 0 -4 -5 -5 -5 -7 -6 -3 -3 -4 -1 -2 -4 -5 -6 -3 -1 -3 -3 -1 -1 0 0 1 1
-4 -4 -3 0 0 -1 -2 -1 -2 -2 -3 -5 -3 -2 -3 -0 -3 -1 -5 -6 0 4 3 -2 -4 -4 -5 -4 -2 -2 -2 -3 -3 -1 -0 -0 -4 -4 -3 -3 -1 -1 1 -1 1 1 4
-3 -3 -3 -3 0 -1 -2 -1 -2 -2 -2 -6 -4 -3 -3 1 -0 -0 -1 -4 4 4 -0 -2 -3 -4 -4 -3 -0 -1 0 1 1 -3 3 2 1 -0 -2 0 -0 1 1 2 2 3 4
-3 -3 -4 -3 -2 -0 -2 -2 -1 -2 0 -2 -3 -4 -3 -3 -3 -2 -4 3 2 2 -0 -3 -3 -2 -1 -2 -0 1 1 2 0 1 3 5 1 1 -0 -0 1 1 2 3 2 5 4
-3 -4 -4 -4 -3 0 -2 -2 -1 -2 1 -0 -1 -3 -3 -0 -0 -3 3 3 2 1 -2 -2 -1 -0 1 1 -0 1 2 2 1 1 3 5 3 1 1 1 -0 2 3 1 3 0 3
-3 -5 -5 -4 -3 -2 -1 -2 1 -2 2 1 -2 -2 -2 -3 -1 4 3 1 -2 -2 -2 -1 1 1 2 3 2 1 2 1 1 2 1 3 5 1 1 0 -0 1 0 3 4 4 6
-3 -5 -6 -5 -4 -3 -0 -2 1 -1 2 5 4 -2 4 3 4 -0 2 -1 -3 0 -0 1 2 3 3 3 2 3 2 1 0 1 0 1 3 0 -0 2 3 3 3 3 3 4 5
-2 -4 -6 -7 -5 -3 -2 -2 -1 4 2 6 2 -1 4 3 0 1 -0 -2 -0 1 0 1 1 1 2 2 3 3 3 2 1 1 2 2 2 3 1 -0 1 2 2 2 3 3 3
-2 -3 -4 -6 -7 -4 -3 -1 -2 3 5 3 1 2 2 2 2 0 0 1 0 0 1 0 1 2 2 2 3 2 3 2 2 1 2 1 2 2 -2 -0 -0 3 3 2 1 2 4
-3 -3 -4 -6 -7 -5 -4 -1 -2 0 3 1 0 3 1 -1 -0 0 1 1 2 1 0 1 1 1 2 3 2 3 3 2 2 2 1 1 2 1 2 -0 1 3 4 3 3 5 4
-4 -3 -4 -6 -7 -6 -5 -3 -1 -2 2 0 -0 3 2 2 3 2 2 1 2 1 -0 1 2 2 2 3 3 4 3 3 1 2 2 2 4 3 2 2 3 3 4 4 4 4 5
-3 -3 -4 -6 -6 -6 -5 -5 -1 -2 1 1 0 2 2 3 1 -0 0 1 3 1 0 2 2 2 2 3 2 4 3 3 3 2 3 2 2 4 4 3 4 4 4 4 4 4 4
-2 -3 -4 -5 -6 -6 -6 -6 -2 -1 -0 1 2 1 1 3 -0 0 1 1 1 1 1 1 1 1 0 2 2 2 2 2 2 2 2 3 1 3 2 3 2 1 -0 3 2 2 2
-1 -2 -3 -4 -5 -6 -6 -5 -3 -1 -0 1 2 0 -1 1 -1 1 2 1 1 1 2 1 1 -0 2 3 3 3 3 0 0 2 3 2 1 1 2 4 5 0 -1 -1 0 -0 -1
1 -0 -1 -2 -4 -5 -5 -3 -1 0 0 1 2 -0 -2 1 2 3 1 1 1 1 2 1 3 2 3 2 0 -0 -1 -3 -2 3 3 1 2 3 5 5 2 2 -0 -1 0 0 -2
2 2 1 -1 -2 -3 -3 -1 1 1 2 3 2 2 -1 0 2 1 1 1 0 0 1 4 4 3 3 0 -1 0 0 1 2 1 1 1 -1 1 3 5 5 1 -2 -2 1 3 1
3 3 2 1 -1 -2 -0 1 2 2 2 2 1 1 1 -1 0 2 1 2 1 1 1 2 4 3 3 0 2 0 2 1 3 0 -2 1 2 5 5 4 2 -1 -1 -1 4 2 1
4 4 3 3 2 1 1 2 3 3 2 2 2 1 2 0 1 2 1 1 2 2 1 2 2 2 2 3 2 2 -2 0 2 1 -0 -1 -1 -0 2 3 3 -1 0 2 1 1 1
5 4 4 4 4 3 4 4 4 3 3 2 2 3 2 1 1 3 3 2 2 2 1 2 2 2 3 2 1 -0 0 0 1 4 -0 2 1 2 3 2 -1 -0 2 0 1 2 2

GFSGBSN_850_dewp_003.txt.gz
Dewpoint
0 -0 -1 -1 -1 -1 -0 1 1 2 1 0 -0 -1 -1 -2 -4 -6 -5 -7 -8 -5 -6 -2 -2 -5 -6 -4 -4 -4 -4 -6 -7 -7 -7 -8 -7 -6 -4 -6 -6 -6 -7 -7 -8 -9 -9
2 -0 -1 -1 -1 -0 0 1 1 1 0 -1 -1 -2 -3 -5 -5 -5 -5 -9 -6 -7 -3 -2 -3 -6 -6 -4 -4 -5 -4 -5 -8 -7 -7 -7 -7 -6 -5 -6 -5 -6 -6 -6 -7 -6 -6
2 1 1 -0 -0 -0 0 1 1 0 -1 -3 -4 -4 -5 -5 -4 -4 -6 -8 -7 -4 -3 -2 -5 -5 -4 -4 -4 -6 -7 -6 -8 -6 -5 -6 -7 -8 -6 -5 -5 -6 -7 -8 -7 -6 -7
2 2 1 -0 -0 -1 0 1 1 -0 -1 -2 -2 -2 -2 -2 -2 -3 -7 -8 -5 -3 -3 -2 -3 -4 -4 -4 -6 -8 -11 -9 -6 -5 -5 -6 -7 -9 -8 -5 -8 -7 -7 -5 -7 -5 -5
2 2 1 -0 -0 -1 -0 0 0 0 0 0 -1 -2 -2 -2 -3 -4 -6 -5 -3 -4 -3 -3 -3 -4 -4 -6 -7 -7 -9 -7 -5 -6 -5 -6 -9 -8 -8 -6 -5 -5 -8 -6 -5 -4 -3
3 2 1 -0 -0 -1 -1 0 0 1 0 0 -0 -0 -1 -2 -3 -3 -4 -4 -4 -3 -3 -5 -4 -6 -6 -6 -6 -8 -6 -6 -7 -8 -10 -8 -9 -5 -5 -7 -7 -4 -6 -4 -4 -5 -2
3 2 1 -0 -1 -1 -1 -1 0 0 0 -0 -1 -1 -1 1 -2 -4 -4 -3 -5 -6 -6 -6 -6 -6 -6 -6 -5 -8 -7 -8 -10 -9 -4 -7 -4 -4 -4 -5 -6 -5 -4 -2 -4 -4 -1
2 2 1 0 -1 -1 -2 -1 -0 -0 -0 -1 -1 -2 -0 3 -0 -0 -3 -4 -3 -4 -5 -5 -6 -6 -6 -4 -3 -5 -7 -8 -8 -5 -6 -4 -3 -6 -6 -5 -6 -4 -3 -4 -3 -3 -1
2 2 1 0 -1 -1 -1 -2 -2 -1 -1 -1 -2 -2 -0 -2 0 -2 -4 -3 -2 -2 -5 -4 -5 -6 -6 -3 -2 -2 -4 -5 -6 -4 -4 -3 -6 -6 -6 -3 -1 -2 -4 -3 -2 -2 -2
0 1 1 0 -0 -1 -0 -1 -2 -2 -1 -2 -2 -2 -1 -2 -1 -1 -3 -3 -2 -0 0 -2 -5 -5 -6 -6 -4 -3 -4 -4 -3 -4 -4 -5 -6 -3 -2 -2 -2 -0 -4 -1 -1 1 1
-2 -1 1 0 -0 -1 0 -1 -2 -3 -2 -2 -2 -3 -2 -2 -3 -2 -3 -4 -4 3 2 -4 -4 -5 -4 -4 -4 -3 -3 -3 -1 -1 -3 -5 -4 -2 -0 -2 -2 1 -1 0 0 2 1
-4 -3 -2 1 -0 -1 -1 -0 -1 -2 -4 -2 -2 -2 -3 -2 -4 -3 -5 -6 1 4 1 -2 -4 -4 -2 -2 -1 -2 -2 -4 -3 -1 0 -0 -2 -3 -2 -3 -2 -1 0 -1 1 1 4
-4 -3 -3 -1 0 -1 -1 -1 -1 -1 -5 -5 -3 -2 -3 -0 -1 -3 -6 -4 4 4 -1 -2 -3 -3 -2 -0 0 -0 1 2 2 -2 4 1 0 -0 -2 -0 -0 1 -0 3 6 6 5
-3 -3 -3 -3 0 -1 -1 0 -1 0 -2 -4 -4 -3 -2 1 -3 -3 -4 3 3 2 -0 -3 -2 -1 0 -0 0 1 1 2 1 1 4 4 2 1 0 -0 1 2 2 5 3 6 5
-2 -4 -4 -3 -2 -0 -1 1 -1 2 2 -2 -3 -3 -3 -3 -3 -3 2 4 2 1 -2 -2 -1 0 2 1 0 1 2 2 1 2 4 5 3 1 1 1 -0 2 4 1 4 2 6
-2 -4 -5 -4 -3 -0 -1 0 1 1 4 -0 -1 -3 -2 -0 -2 0 4 1 -2 -1 -1 -2 1 0 2 3 2 2 2 1 1 1 0 3 4 1 1 -0 0 1 1 4 5 7 6
-2 -4 -6 -5 -4 -2 -0 -1 3 -1 4 4 -1 0 3 -1 3 1 3 -0 -1 1 0 0 2 3 2 3 2 3 2 1 0 1 0 1 2 1 0 2 3 3 3 3 3 5 7
-2 -4 -5 -6 -5 -3 -1 -1 2 1 3 5 1 3 4 4 -0 -0 1 -2 0 0 0 1 1 2 2 2 4 3 4 2 1 1 3 2 2 2 1 0 1 1 2 1 3 3 5
-2 -3 -4 -6 -7 -4 -2 -1 -1 3 5 4 2 2 2 2 3 2 0 1 0 0 1 0 2 2 1 2 3 3 3 2 2 2 2 1 3 2 -3 -0 -1 3 2 1 2 3 5
-2 -3 -4 -5 -7 -6 -4 -1 -2 3 2 0 0 4 -0 -1 -0 1 1 1 2 0 1 1 1 1 2 3 3 4 3 2 2 2 1 1 2 1 1 -2 0 3 3 2 4 6 4
-2 -3 -4 -5 -7 -8 -5 -3 -2 -0 2 -0 -0 3 1 3 3 1 1 0 2 1 0 0 1 1 2 3 3 4 3 2 1 2 2 3 5 3 2 2 2 3 3 3 4 4 5
-3 -3 -4 -5 -7 -7 -6 -6 -1 -2 2 -0 1 2 1 2 -0 0 0 1 2 1 -0 1 3 2 1 2 1 3 3 3 2 2 2 2 3 4 4 3 2 4 3 3 3 4 4
-2 -3 -4 -5 -6 -7 -7 -7 -3 -1 -0 1 1 1 0 1 -1 1 1 1 1 0 1 0 1 1 0 2 0 1 1 2 1 2 2 3 4 4 4 3 3 3 -1 2 2 2 1
-1 -2 -3 -4 -6 -7 -7 -6 -5 -1 -0 0 1 -0 0 2 -1 1 1 0 1 0 2 1 0 1 0 2 3 3 2 -1 0 2 2 3 3 3 5 4 5 0 -1 -1 1 0 -1
1 -1 -2 -3 -4 -6 -7 -6 -4 -1 1 1 1 -1 -2 2 1 1 1 1 1 1 1 1 2 1 3 2 2 2 1 -2 -0 2 2 2 3 4 5 5 3 1 -0 -0 1 -0 -1
3 1 -0 -1 -3 -4 -6 -6 -3 -0 2 3 2 0 -2 -1 3 0 1 0 1 1 1 4 4 3 3 0 2 3 3 1 2 1 1 1 0 4 5 6 6 2 -2 -2 0 3 1
4 2 1 0 -1 -3 -4 -4 -2 1 2 3 2 2 -1 -3 0 1 1 2 0 0 2 2 4 3 3 2 4 4 5 1 4 1 -0 3 2 4 4 5 4 0 -1 -1 5 5 1
4 3 2 2 1 -1 -3 -3 -2 1 2 2 2 1 1 -2 0 1 -0 -1 0 0 3 2 3 3 3 4 4 4 3 2 2 1 0 1 2 2 2 4 4 -2 -1 4 3 3 2
5 4 3 2 2 1 -0 -0 0 1 2 2 3 2 1 1 1 2 2 1 0 0 -0 3 1 2 3 2 2 2 3 0 2 5 -0 3 2 3 3 3 -1 -2 0 2 3 4 3

GFSGBSN_850_dewp_006.txt.gz
Dewpoint
1 1 -1 -1 0 0 -0 0 1 1 1 1 -0 -1 -2 -3 -4 -5 -6 -6 -7 -5 -4 -2 -5 -7 -4 -4 -4 -4 -5 -7 -6 -7 -7 -7 -8 -8 -9 -9 -10 -10 -8 -8 -8 -9 -9
2 1 1 1 1 0 0 1 1 1 0 -0 -1 -1 -2 -3 -5 -6 -6 -7 -5 -5 -2 -2 -5 -6 -4 -5 -5 -5 -5 -6 -7 -5 -8 -6 -6 -6 -6 -6 -8 -5 -6 -6 -6 -6 -6
2 1 2 1 1 -0 0 1 1 -0 -1 -2 -3 -4 -4 -5 -5 -5 -7 -6 -6 -3 -3 -3 -5 -6 -4 -4 -5 -8 -7 -7 -9 -7 -5 -8 -7 -6 -5 -4 -4 -6 -6 -6 -6 -6 -6
2 2 2 1 0 -0 0 1 0 -1 -2 -3 -4 -4 -4 -4 -4 -8 -6 -7 -3 -3 -2 -3 -4 -5 -4 -5 -7 -10 -10 -9 -8 -6 -6 -8 -8 -6 -5 -5 -8 -8 -8 -7 -5 -6 -4
3 2 2 0 -0 -0 0 0 0 -0 -0 -1 -1 -1 -1 -2 -5 -7 -7 -4 -4 -3 -3 -3 -4 -3 -6 -6 -6 -10 -10 -6 -5 -5 -6 -9 -8 -6 -7 -6 -8 -8 -10 -9 -6 -5 -4
3 2 1 0 -1 -1 -0 0 1 1 -0 -1 -1 -1 -2 -3 -4 -6 -5 -4 -3 -2 -4 -4 -5 -5 -6 -5 -7 -10 -6 -6 -6 -7 -6 -6 -6 -7 -9 -11 -10 -8 -8 -7 -7 -6 -5
3 2 1 0 -1 -1 -0 0 1 0 0 0 -0 -1 -2 -3 -3 -4 -4 -3 -4 -3 -4 -4 -5 -6 -6 -5 -5 -5 -8 -9 -8 -6 -6 -6 -7 -5 -5 -5 -6 -6 -6 -6 -7 -4 -1
3 3 1 0 -1 -1 -1 -0 -0 -0 -0 -1 -1 1 2 -3 -4 -4 -3 1 -5 -4 -5 -5 -6 -4 -3 -4 -5 -4 -7 -7 -6 -6 -5 -7 -4 -6 -5 -5 -6 -5 -5 -5 -4 -3 -1
2 2 2 1 -1 -1 -2 -1 -1 -1 -1 -1 1 -1 1 1 -0 -2 -3 -4 -6 -5 -5 -5 -5 -5 -5 -3 -2 -2 -3 -5 -7 -6 -6 -6 -5 -6 -5 -2 -2 -4 -4 -1 -1 -2 -2
1 1 2 1 -0 -0 -2 -2 -1 -1 -1 -2 -0 0 -2 0 -0 -4 -3 -3 -4 -3 -4 -4 -5 -4 -5 -4 -3 -2 -3 -3 -4 -4 -5 -5 -4 -2 -2 -1 -1 -2 -2 -0 -0 -0 -1
-1 -1 1 1 -0 -0 -1 -3 -2 -1 -2 -2 -2 -1 -1 -2 -1 0 -4 -3 -1 3 1 -4 -5 -3 -2 -3 -3 -2 -3 -3 -2 -2 -3 -3 -2 -1 -1 -1 -1 0 0 0 0 0 1
-3 -3 -0 1 -0 -1 -1 -1 -3 -3 -2 -2 -3 -3 -2 -3 -2 -2 -4 -6 1 5 2 -2 -4 -3 -2 -2 -2 -2 -2 -2 -2 -2 -3 -2 -2 -2 -1 -2 -1 -1 0 1 1 2 4
-3 -3 -2 1 -0 -1 -1 -1 -1 -3 -3 -2 -2 -2 -3 -3 -2 -4 -6 -2 1 3 -1 -2 -3 -2 -1 -0 -1 -1 -0 1 0 -1 1 -1 -0 -1 -0 -1 -0 -1 -0 3 6 5 4
-3 -3 -3 -1 1 -0 0 -1 -1 -1 -6 -4 -2 -2 -2 -2 -3 -4 -5 4 2 1 -0 -3 -2 -2 -0 -0 0 0 -0 1 0 -0 0 1 2 1 0 1 1 1 2 5 5 4 3
-2 -3 -4 -2 0 -0 1 -0 0 2 -3 -5 -3 -2 -3 0 -4 -3 2 6 3 -0 -3 -2 -2 -1 1 0 -0 0 1 1 1 1 2 2 2 -0 -0 -0 0 1 3 1 5 5 7
-2 -4 -5 -3 -1 0 0 1 1 3 -1 -2 -2 -3 -3 -3 -3 -2 5 1 -0 -2 -1 -3 -0 0 1 1 1 1 2 1 1 1 0 2 3 0 -0 0 0 1 1 3 2 8 2
-2 -4 -6 -4 -2 -0 -0 2 -1 3 -0 -1 -2 -0 -1 -1 -1 4 4 2 0 1 1 -0 1 2 2 2 1 2 2 1 1 1 0 -1 1 0 0 2 2 2 3 2 1 3 3
-2 -3 -6 -6 -4 -2 -1 1 0 2 4 2 1 3 2 1 3 1 2 0 0 1 1 1 2 2 2 3 3 3 3 2 2 1 1 1 2 -0 -1 1 1 1 2 1 2 2 3
-2 -3 -5 -6 -6 -3 -1 -1 3 1 4 4 4 4 4 3 7 7 2 1 1 1 1 1 2 2 1 3 4 3 3 2 2 1 2 1 2 -1 -0 2 1 2 1 1 2 3 5
-2 -2 -3 -5 -7 -5 -3 -1 3 4 4 1 2 9 2 1 2 1 2 2 2 1 1 1 1 1 2 3 3 4 4 3 3 2 1 1 2 1 -3 -3 -2 -1 -2 -0 1 5 3
-2 -2 -3 -5 -7 -7 -5 -2 -1 2 1 -1 2 5 3 7 4 2 2 1 2 2 1 1 1 1 2 4 3 4 3 2 2 2 3 2 2 2 0 -1 -1 0 0 -1 0 2 4
-2 -2 -3 -4 -7 -7 -6 -5 -2 -0 1 -1 4 4 3 3 2 2 3 2 1 1 1 1 1 1 -1 0 -2 1 -1 -0 -1 2 2 2 3 3 3 1 -0 2 0 -0 1 1 1
-2 -3 -3 -4 -6 -7 -7 -6 -2 -2 -0 -0 1 0 3 2 2 4 3 2 1 1 2 1 1 1 3 -0 0 2 2 2 2 1 3 4 5 5 7 2 3 6 2 -0 -1 0 -0
-1 -3 -4 -4 -6 -7 -7 -7 -6 -1 -1 -0 0 0 2 6 4 2 1 1 1 1 2 2 1 4 2 1 2 2 1 2 3 3 3 5 5 5 7 6 7 1 -2 -2 -1 -1 -2
0 -2 -3 -4 -5 -7 -7 -7 -6 -2 -1 -1 0 -1 -1 6 3 2 2 2 2 2 2 2 4 3 4 3 4 7 3 5 4 2 2 3 5 6 6 4 2 0 -1 -0 -0 -0 -1
2 -0 -2 -3 -4 -6 -6 -6 -5 -2 0 0 1 -2 -3 1 6 1 2 2 4 4 4 5 3 3 3 5 6 8 5 2 1 2 2 2 3 6 5 6 6 1 -2 -1 -1 2 1
3 2 -0 -2 -3 -4 -5 -5 -4 -1 2 2 2 0 -2 -3 1 1 3 3 3 3 4 4 4 3 4 6 7 9 5 2 3 6 6 5 4 5 5 6 4 -1 -1 -0 5 5 3
4 3 2 1 -1 -3 -3 -4 -4 -1 2 3 2 1 -1 -2 1 0 -0 0 1 2 6 4 5 5 6 7 6 7 6 5 3 1 3 3 6 6 5 5 6 -1 -1 5 3 3 3
5 4 3 2 1 -1 -2 -2 -2 -1 1 2 2 1 1 -0 1 1 0 -1 -1 0 2 4 4 4 5 6 5 4 5 3 7 6 1 3 2 2 3 4 -0 0 1 2 3 3 3

GFSGBSN_850_dewp_009.txt.gz
Dewpoint
-1 -0 -0 0 0 0 -0 0 1 1 1 1 -0 -1 -2 -3 -4 -5 -5 -6 -7 -4 -4 -3 -6 -9 -7 -2 -6 -5 -6 -6 -5 -5 -8 -9 -10 -12 -13 -14 -14 -13 -13 -14 -15 -14 -14
1 0 1 1 1 0 0 1 1 1 1 0 -0 -1 -2 -3 -4 -5 -6 -7 -5 -5 -2 -3 -7 -9 -4 -4 -5 -6 -6 -6 -6 -7 -9 -10 -10 -11 -12 -13 -12 -11 -10 -9 -9 -9 -9
1 1 2 1 0 0 0 1 1 0 -1 -1 -1 -2 -2 -3 -5 -5 -7 -5 -5 -2 -3 -4 -6 -7 0 -5 -6 -7 -7 -7 -7 -5 -7 -7 -9 -10 -10 -7 -8 -9 -8 -8 -8 -7 -7
1 2 2 1 1 0 0 1 1 -1 -2 -3 -4 -4 -5 -5 -5 -7 -5 -5 -3 -2 -2 -4 -7 -6 -3 -5 -6 -8 -9 -8 -7 -5 -5 -6 -7 -6 -8 -7 -9 -8 -8 -6 -7 -7 -6
2 2 2 1 1 0 0 1 0 0 -1 -2 -4 -5 -4 -5 -7 -6 -6 -4 -3 -2 -2 -4 -4 -2 -6 -7 -7 -7 -8 -8 -6 -4 -8 -9 -6 -8 -6 -7 -8 -8 -7 -10 -6 -7 -7
3 2 2 1 0 -0 0 1 1 -0 -1 -1 -1 -2 -3 -6 -6 -6 -5 -3 -2 -2 -3 -4 -2 -3 -8 -7 -7 -8 -7 -5 -5 -5 -6 -6 -7 -7 -11 -10 -6 -8 -11 -11 -10 -7 -9
3 3 2 1 0 -0 0 1 1 0 0 -0 -1 -2 -3 -4 -5 -6 -3 -3 -2 -2 -3 -4 -6 -6 -7 -7 -8 -6 -6 -6 -6 -6 -6 -7 -7 -5 -5 -7 -8 -9 -9 -8 -8 -6 -5
3 3 2 1 0 -1 -0 0 0 0 0 -0 -1 -1 -3 -4 -5 -3 -3 2 3 -3 -5 -5 -5 -4 -4 -5 -7 -6 -6 -6 -7 -7 -8 -9 -5 -6 -6 -5 -6 -6 -6 -6 -6 -5 -3
2 3 2 1 0 -1 -1 -0 -0 -0 -1 -1 2 2 -1 -3 -4 -3 4 2 -5 -3 -5 -5 -4 -5 -5 -5 -4 -4 -5 -8 -9 -10 -10 -5 -5 -6 -5 -4 -3 -4 -4 -2 -2 -4 -5
1 2 2 1 -0 -0 -2 -1 -1 -1 -1 -0 -0 1 1 -1 -0 2 4 -5 -5 -4 -3 -6 -6 -5 -5 -4 -3 -3 -3 -5 -7 -8 -7 -5 -4 -4 -3 -2 -2 -2 -3 -2 -2 -2 -1
-0 0 2 1 -0 -0 -1 -2 -1 -1 -2 -1 -0 -1 -1 1 2 -0 0 -4 -6 1 3 -5 -5 -3 -5 -4 -3 -3 -3 -4 -6 -5 -3 -2 -3 -2 -1 -2 -2 0 -1 -1 -1 -2 -2
-2 -2 0 2 0 -0 -1 -3 -2 -1 -2 -2 -1 -1 -2 -1 3 0 -4 -4 -5 5 2 -3 -5 -3 -3 -3 -3 -2 -2 -3 -2 -3 -4 -3 -3 -2 -1 -2 -2 -1 -0 -0 1 -0 2
-3 -3 -2 1 1 -0 -0 -2 -3 -2 -2 -2 -3 -2 -1 -0 3 -3 -4 -0 -1 4 -3 -3 -3 -3 -2 -2 -2 -2 -1 -0 -1 0 0 -2 -1 -2 -2 -1 -1 -2 -0 4 5 5 5
-3 -3 -3 -0 1 0 1 -1 -2 -4 -2 -2 -3 -2 -2 -3 -3 -3 -2 0 5 -1 -3 -5 -4 -3 -1 -2 -1 -1 -1 -0 -1 -1 -2 -0 3 -1 -2 0 1 -0 1 6 4 4 2
-2 -3 -3 -1 1 1 2 -1 -1 -3 -4 -2 -2 -2 1 -3 -4 -5 0 5 2 -3 -4 -3 -3 -2 -1 -1 -1 -0 0 -0 -1 -0 1 1 2 -1 -1 -1 -1 1 2 -0 5 5 6
-2 -3 -4 -2 0 1 2 -0 2 -2 -5 -3 1 0 2 -1 -5 -2 4 3 -0 -2 -4 -4 -2 -1 0 -1 -0 0 0 -0 -0 -2 -2 -1 3 -2 -1 -1 -1 1 -1 4 2 7 1
-2 -4 -5 -3 -1 1 1 0 3 0 -3 -2 2 -1 2 -3 -3 1 6 1 -1 -1 -1 -1 -1 -0 0 1 -0 1 1 0 -0 -1 -2 -3 -1 -0 -2 0 0 1 2 1 -1 2 3
-2 -4 -5 -4 -2 0 0 2 3 1 -1 -1 2 1 -2 -2 1 4 3 -0 -1 -1 0 0 -0 -0 1 1 2 2 2 2 1 -0 0 -0 1 0 -3 -1 -0 -0 0 -0 2 1 1
-2 -3 -5 -5 -4 -1 -0 3 0 4 1 5 1 3 0 1 8 8 2 1 0 0 -0 0 2 1 1 2 3 2 2 2 2 0 2 0 2 1 -2 1 0 0 -0 -1 0 2 3
-1 -2 -4 -6 -6 -3 -1 1 2 3 4 4 2 7 3 4 2 1 2 1 2 1 1 1 1 1 1 2 1 3 3 2 3 2 1 1 -0 -0 1 -3 -4 -3 -4 -4 -1 4 3
-1 -2 -3 -5 -7 -5 -3 -1 3 3 4 2 4 4 4 5 4 1 1 1 1 1 0 0 1 1 2 3 2 2 1 2 1 1 1 1 2 1 -0 -3 -4 -3 -2 -3 -3 -2 2
-1 -2 -3 -4 -6 -8 -5 -2 -1 2 0 4 2 3 3 4 2 2 2 1 0 0 -0 0 1 -0 -1 2 -3 -0 -2 -3 -2 1 0 1 4 3 2 -2 -3 -1 -3 -3 -3 -2 -2
-2 -2 -3 -4 -6 -8 -7 -5 -2 -0 0 4 1 3 3 3 3 3 3 1 -0 1 2 -1 -1 -2 2 -1 0 1 1 1 -0 1 2 3 4 4 6 3 3 7 2 -3 -3 -3 -1
-1 -2 -3 -3 -5 -7 -8 -7 -3 -2 -1 2 3 4 5 6 4 3 0 -0 0 -0 1 -0 -1 2 3 2 2 2 2 2 2 2 2 6 5 6 8 6 9 1 -3 -3 -2 -2 -3
-1 -2 -3 -4 -4 -6 -8 -7 -6 -1 -1 -1 -0 3 3 10 3 2 1 0 1 1 1 2 3 3 3 2 4 6 4 5 4 1 1 2 6 7 7 4 2 0 -1 -1 -0 0 -2
0 -1 -3 -3 -4 -6 -7 -7 -6 -3 -1 0 -0 -2 3 3 7 1 2 2 4 4 4 5 5 5 5 5 6 8 5 1 2 2 1 3 4 6 7 7 6 2 -1 -1 -1 3 2
2 0 -1 -3 -4 -5 -6 -7 -6 -4 0 1 1 -2 3 5 3 2 3 3 2 2 4 4 5 5 5 8 8 9 5 1 2 6 5 6 5 7 5 7 4 -1 -1 -1 4 5 3
3 2 -0 -1 -3 -4 -5 -6 -5 -4 -0 2 2 -0 2 3 4 3 3 4 3 2 7 5 5 5 7 7 8 8 8 4 3 -1 3 4 7 6 5 7 6 -1 -1 5 2 2 3
4 3 2 0 -1 -2 -3 -4 -5 -4 -1 1 5 1 -1 4 5 0 0 1 2 2 2 5 3 5 4 7 7 7 6 6 6 5 -2 2 2 3 4 3 -2 0 1 3 2 3 3

GFSGBSN_850_dewp_015.txt.gz
Dewpoint
-4 -3 -2 -1 -2 -0 -1 -1 -1 -0 0 0 1 0 -0 -2 -4 -6 -7 -7 -8 -8 -7 -4 -5 -5 -5 -4 -3 -8 -6 -6 -15 -15 -10 -5 -5 -8 -8 -11 -13 -13 -14 -16 -17 -15 -12
-3 -2 -0 -1 -0 -0 -1 -0 -0 0 0 0 0 0 -1 -3 -5 -6 -6 -7 -8 -7 -4 -4 -5 -5 -6 2 -6 -7 -7 -7 -7 -6 -5 -5 -7 -9 -11 -11 -11 -14 -15 -17 -17 -12 -12
-2 -1 1 0 0 -0 -0 0 0 -0 -1 -1 -1 -1 -2 -4 -5 -6 -7 -7 -6 -4 -4 -3 -6 -6 -6 -3 -5 -8 -8 -8 -7 -6 -6 -8 -9 -10 -9 -10 -12 -12 -11 -12 -11 -10 -10
-1 1 1 1 0 -0 0 0 0 -0 -2 -3 -2 -2 -3 -5 -6 -7 -7 -6 -5 -3 -2 -4 -7 -7 -8 -3 -6 -9 -9 -9 -9 -6 -6 -8 -9 -8 -8 -13 -13 -11 -9 -6 -8 -8 -9
-0 2 1 1 0 -0 -0 0 1 0 -1 -2 -3 -3 -4 -5 -6 -6 -6 -5 -3 -2 -2 -5 -6 -6 1 -7 -10 -7 -10 -8 -9 -8 -8 -10 -8 -8 -11 -9 -7 -7 -6 -4 -6 -8 -6
1 2 2 1 -0 -0 -0 0 1 0 -0 -1 -4 -5 -5 -6 -6 -5 -4 -3 -1 -1 -3 -5 -2 4 -1 -5 -7 -8 -9 -7 -7 -6 -6 -7 -7 -6 -6 -5 -3 -5 -5 -4 -4 -8 -10
2 2 2 1 -0 -0 -0 0 1 0 1 -0 -2 -4 -5 -5 -5 -5 -3 -1 -1 -1 -2 -5 -6 -1 -10 -12 -9 -9 -8 -6 -5 -6 -4 -6 -3 -3 -5 -7 -8 -7 -7 -4 -5 -7 -7
2 2 2 1 -0 -0 -0 0 0 1 1 -0 -1 -3 -5 -5 -5 -4 -2 4 3 4 -1 -2 -5 -7 -7 -6 -8 -8 -7 -6 -6 -3 -4 -5 -3 -6 -7 -7 -6 -7 -3 -1 -5 -6 -8
2 2 2 1 0 -0 -1 0 -0 1 0 0 -1 -3 -5 -5 -5 -2 3 5 4 0 -2 -5 -6 -6 -5 -5 -5 -7 -5 -5 -6 -4 -3 -2 -5 -7 -6 -2 -2 -2 -0 -1 -2 -4 -5
2 2 2 1 0 -0 -1 -0 -0 0 -0 3 1 -2 -4 -4 -3 -3 3 4 4 -4 -1 -5 -5 -7 -6 -5 -5 -6 -6 -5 -7 -4 -3 -3 -6 -4 -4 -1 -2 2 -0 -1 -2 -2 -1
1 2 1 1 -0 -0 -1 -1 -1 -0 -0 1 2 1 -3 -2 5 5 5 -2 -5 -1 5 -4 -4 -6 -6 -4 -5 -5 -9 -3 -3 -7 -2 -2 -1 -0 0 -1 -3 1 -2 -1 -1 -0 -0
1 1 1 1 0 -0 -1 -1 -1 -1 -1 1 -0 1 0 2 7 5 1 -5 -6 9 4 -3 -5 -3 -5 -4 -4 -5 -5 -4 -3 -3 -3 -3 -3 -2 -2 -3 -3 -3 0 1 0 2 5
0 -0 -0 1 0 -1 -1 -2 -1 -1 -2 -1 -1 -1 3 5 7 -1 -5 -7 6 7 -2 -3 -2 -2 -3 -2 -2 -2 -1 -0 1 1 1 -1 -1 -2 -3 0 -1 -1 3 7 7 7 7
-1 -1 -1 -0 0 -0 -0 -2 -2 -1 -2 -2 -2 -1 0 2 3 -4 -5 6 8 -0 -3 -4 -3 -2 -1 -2 -2 -2 -1 1 -1 2 2 3 4 -1 -2 -1 -0 1 2 5 8 8 6
-1 -2 -2 -1 1 0 1 -1 -3 -2 -2 -2 -3 -2 -2 -2 -3 -3 5 8 7 0 -4 -3 -2 -0 -1 -2 -1 0 0 -1 -1 -1 2 4 2 -2 -3 -3 -2 2 2 -2 5 5 5
-2 -3 -3 -2 0 1 1 -0 -2 -3 -2 -2 -3 -2 1 -3 -5 -4 8 8 3 -3 -4 -4 -0 -1 1 -1 -0 1 1 1 0 -1 -2 -1 2 -3 -3 -2 -1 -1 -3 4 4 5 4
-2 -3 -3 -3 -0 1 2 0 -1 -2 -3 -2 1 0 1 1 -7 0 7 8 -1 -3 -0 1 1 -2 1 -1 -1 1 2 1 -0 -1 -3 1 3 -0 -2 -1 0 1 2 1 1 4 5
-3 -3 -4 -3 -1 1 1 1 2 -1 -3 -2 4 4 5 -2 1 5 5 3 -2 -1 -1 0 0 -1 1 0 3 3 4 3 0 1 0 -2 2 2 1 -2 -3 -2 0 2 4 4 4
-3 -3 -4 -4 -2 0 1 2 3 -2 -3 0 3 5 2 -2 4 5 4 1 -1 -1 -1 -1 1 2 1 3 3 5 4 2 2 2 3 1 2 5 4 3 0 -3 -2 -0 4 2 2
-2 -2 -4 -5 -3 -1 1 3 4 -2 -2 3 6 5 2 4 6 6 4 2 2 0 1 0 1 -0 2 2 2 5 5 3 1 -1 -2 2 1 2 4 0 -2 -2 -2 -3 3 4 4
-2 -2 -4 -5 -5 -2 0 3 3 -1 -1 4 6 5 -1 4 3 5 4 3 3 2 0 0 1 1 2 3 3 5 4 3 2 -1 1 2 4 3 1 -1 -1 -1 -1 -2 -1 -1 2
-2 -2 -3 -5 -6 -4 -2 1 3 0 -0 4 6 6 -4 -1 -2 3 4 2 3 2 2 2 1 1 2 3 3 4 3 2 3 1 2 3 5 3 2 2 2 2 1 0 -1 -1 -1
-1 -1 -2 -4 -6 -6 -4 -1 2 2 3 4 5 2 5 6 3 5 5 2 1 2 1 1 1 4 4 3 2 2 0 0 2 2 4 5 3 3 5 3 4 3 2 0 -1 -1 -2
-1 -1 -2 -3 -5 -7 -6 -4 -0 1 2 6 4 4 4 5 6 5 3 2 3 1 2 3 1 3 2 1 0 1 1 1 1 2 3 3 4 3 2 1 0 3 -1 -1 0 -0 -1
-0 -1 -2 -3 -4 -7 -7 -6 -2 -1 1 3 1 6 4 4 6 4 1 2 2 4 5 4 2 1 1 2 3 -0 2 -2 1 1 2 4 3 2 4 4 1 2 -0 0 1 2 3
-0 -1 -2 -3 -4 -6 -7 -7 -5 -1 -2 -2 0 5 5 4 5 4 2 1 5 5 5 5 3 2 4 5 1 3 4 2 4 3 2 4 2 2 2 2 1 1 -0 -1 -1 3 3
-0 -1 -2 -3 -3 -5 -7 -8 -6 -2 -1 -1 -1 0 4 4 4 3 5 4 4 5 6 5 5 5 5 3 5 4 4 3 4 4 3 2 2 1 4 0 2 2 -1 -1 3 2 4
0 -1 -2 -3 -3 -4 -5 -7 -7 -5 0 1 -1 2 3 4 4 4 4 3 3 4 4 5 4 5 5 5 3 4 3 3 3 3 3 2 2 4 4 3 3 -1 -1 1 1 3 4
1 0 -1 -2 -3 -4 -5 -6 -7 -6 -1 2 1 0 3 2 2 4 4 4 4 5 4 4 0 6 6 4 3 4 4 5 4 3 2 3 3 4 2 2 -1 -1 -0 0 2 3 3

GFSGBSN_850_dewp_018.txt.gz
Dewpoint
-10 -9 -7 -4 -2 -2 -1 -1 -1 -1 -0 -0 -0 -0 -0 -1 -2 -4 -6 -7 -8 -9 -9 -7 -5 -5 -6 -4 -5 -8 -7 -6 -6 -10 -13 -12 -4 -4 -7 -9 -11 -14 -16 -17 -13 -13 -17
-10 -7 -5 -3 -1 -1 -1 -1 -0 0 0 -1 -1 -1 -1 -2 -3 -5 -7 -8 -8 -8 -6 -5 -4 -5 -4 2 -3 -5 -7 -8 -6 -6 -6 -5 -5 -7 -8 -9 -13 -14 -16 -17 -15 -12 -12
-8 -5 -3 -1 -0 0 -1 -1 0 0 -1 -2 -1 -1 -1 -2 -4 -6 -7 -7 -7 -6 -4 -4 -4 -5 -4 -5 -4 -7 -8 -9 -8 -6 -6 -7 -8 -8 -9 -10 -14 -16 -13 -13 -12 -11 -11
-7 -4 -2 0 1 0 -0 -0 0 -0 -1 -2 -2 -1 -2 -3 -5 -6 -6 -6 -6 -4 -3 -3 -4 -5 -6 -3 -3 -7 -9 -9 -9 -7 -8 -9 -9 -9 -11 -13 -11 -11 -9 -7 -9 -9 -9
-6 -3 -1 1 1 0 -0 0 1 1 -0 -2 -3 -3 -3 -4 -5 -6 -6 -5 -4 -3 -2 -2 -4 -4 -8 -2 -7 -8 -9 -7 -8 -11 -11 -10 -8 -7 -10 -8 -8 -7 -7 -6 -6 -8 -8
-4 -2 1 1 1 -0 -0 0 1 1 -0 -2 -3 -4 -4 -5 -7 -6 -5 -4 -2 -1 -2 -3 2 1 -8 -4 -8 -8 -11 -7 -7 -7 -9 -8 -7 -5 -6 -6 -6 -6 -5 -5 -5 -7 -6
-3 -1 1 2 1 -0 0 0 1 1 0 -1 -3 -5 -5 -6 -6 -5 -3 -1 -0 0 -3 -11 -7 -1 -5 -10 -10 -9 -11 -7 -5 -6 -5 -4 -3 -4 -6 -7 -7 -7 -5 -4 -6 -7 -7
-2 1 1 2 1 0 -0 0 0 1 1 -0 -2 -5 -6 -5 -5 -3 -2 2 6 5 -5 -10 -4 -2 -5 -6 -8 -8 -8 -6 -6 -4 -5 -4 -4 -6 -6 -3 -3 -3 -2 -3 -5 -6 -8
-1 2 2 1 1 -0 -0 0 0 1 0 -1 -2 -5 -5 -5 -4 -3 1 4 5 2 2 -5 -4 -4 -5 -5 -6 -6 -5 -5 -6 -5 -3 -3 -5 -7 -2 -2 -1 1 -1 -2 -2 -4 -6
-0 2 2 1 1 -0 -0 -0 -0 0 0 0 -2 -4 -4 -5 -3 -2 -1 5 3 -1 -2 -6 -6 -7 -5 -5 -6 -6 -6 -5 -4 -3 -3 -4 -4 -2 -1 -1 -2 2 -1 -1 -2 -2 -4
1 2 2 1 1 -0 -1 -0 -0 -1 2 1 -1 -3 -4 -2 6 6 5 4 -1 0 2 -5 -4 -7 -5 -4 -5 -7 -6 -3 -5 -6 -3 -1 -1 -1 -1 -2 -3 1 -2 -2 -2 -0 0
2 1 2 1 1 0 -1 -1 -1 -1 1 1 1 -2 -1 1 6 4 3 -3 -3 7 1 -3 -4 -4 -6 -4 -4 -6 -5 -3 -3 -3 -3 -3 -2 -3 -2 -2 -3 -3 -0 2 1 2 5
2 1 1 1 1 0 -1 -1 -1 -1 0 -1 0 1 3 3 3 1 -4 -2 5 4 -2 -4 -3 -3 -3 -2 -2 -3 -1 -1 1 1 0 -0 -1 -2 -2 0 -1 -1 3 5 6 6 6
1 1 0 0 1 0 -1 -2 -1 -1 -1 -1 -1 1 3 3 3 0 -4 2 7 1 -2 -4 -3 -2 -2 -2 -0 -1 -0 0 -2 1 2 3 4 -1 -2 -2 -1 1 2 5 7 6 4
1 0 -1 -0 1 0 -1 -2 -2 -1 -2 -2 -1 -1 -1 -1 -0 -2 2 6 6 1 -3 -2 -1 0 -1 -2 -1 -0 -1 -1 -1 -1 2 3 2 -2 -3 -3 -1 1 1 -0 4 4 4
0 -1 -2 -1 1 0 -0 -1 -2 -2 -2 -2 -2 -2 -2 -3 -4 -4 6 7 4 -2 -1 -3 -0 -0 0 -1 -0 1 1 0 0 -1 -2 -0 1 -2 -4 -1 -1 -4 -3 3 3 3 4
-1 -2 -2 -2 1 1 1 -1 -3 -2 -2 -2 -2 -4 -4 -3 -5 -2 6 7 0 -2 -0 -0 0 -1 0 -0 0 2 2 1 1 -0 -2 1 0 0 0 -1 0 0 1 1 1 3 4
-2 -2 -3 -2 0 1 1 -1 -2 -3 -2 -2 2 3 3 2 -4 5 5 4 -2 -1 -1 -0 0 2 -0 1 4 5 4 3 2 2 -1 -0 1 2 1 -3 -3 -2 1 1 3 2 3
-2 -3 -3 -2 -0 1 1 0 -1 -2 -2 -1 3 6 5 -0 0 3 3 0 -1 -1 -1 -1 1 1 1 2 5 5 4 2 -1 1 2 -0 1 4 4 2 -0 -2 -2 3 2 1 2
-2 -3 -4 -3 -1 1 2 2 1 -3 -2 0 5 4 3 3 6 3 5 1 2 1 0 0 1 1 2 3 4 5 4 3 -3 -2 -1 2 2 1 4 2 -2 -3 -2 1 2 3 2
-2 -3 -4 -4 -2 0 2 3 2 -3 -2 3 6 3 -2 1 1 3 4 2 2 2 0 0 0 1 2 3 4 5 4 2 1 -1 0 1 3 2 0 0 -1 -1 -1 -1 -1 0 2
-2 -3 -5 -5 -3 -1 2 3 3 -2 -1 3 6 6 -1 -2 -4 3 4 3 3 2 1 1 1 1 2 3 3 5 3 2 1 0 2 3 3 1 1 2 3 1 1 1 -0 -1 -1
-2 -2 -4 -5 -5 -3 -0 3 3 -1 -1 2 4 5 -1 6 0 3 4 2 3 2 1 2 3 3 3 3 2 2 2 1 2 1 5 3 2 1 1 2 3 1 1 0 -1 -1 -1
-1 -2 -4 -5 -6 -4 -2 1 3 2 -2 3 5 5 3 3 4 3 3 1 3 2 3 3 2 2 2 1 0 1 0 1 2 3 2 2 3 0 -1 -2 -3 1 -1 -1 0 2 3
-1 -2 -3 -5 -6 -6 -4 -0 2 2 2 6 4 6 3 2 6 4 2 5 4 4 5 4 3 1 0 -4 -1 -1 0 0 1 4 5 2 0 2 -2 2 -3 0 0 0 -1 1 3
-1 -2 -3 -4 -6 -7 -6 -3 -0 1 2 -0 2 5 2 2 4 5 4 4 5 5 4 5 3 3 1 1 -1 2 1 -2 3 3 2 3 -0 -1 3 -2 -4 -4 0 -1 -1 3 3
-1 -1 -2 -3 -5 -7 -7 -6 -2 -1 -2 -2 1 4 2 4 5 4 3 4 4 4 5 5 4 4 3 -1 3 1 4 1 4 3 2 2 0 1 -2 -1 0 -1 -0 -1 2 0 4
-1 -1 -2 -3 -4 -6 -7 -7 -5 -2 -1 -2 -1 1 2 4 4 4 4 4 4 3 4 4 3 4 3 1 0 3 1 2 2 2 2 2 2 2 2 -0 2 -1 -0 1 -0 2 3
-1 -1 -2 -3 -3 -4 -6 -7 -6 -4 -1 1 -0 3 2 1 4 4 4 4 3 2 2 4 -0 4 3 3 2 4 2 3 2 3 1 1 0 2 2 2 -2 -1 -1 -2 -1 1 3

GFSGBSN_850_dewp_021.txt.gz
Dewpoint
-6 -8 -9 -8 -8 -6 -3 -4 -2 -2 -1 -1 -0 -0 -1 -1 -1 -2 -3 -5 -7 -8 -8 -9 -6 -5 -5 -4 -5 -4 -7 -6 -6 -9 -10 -8 -7 -4 -6 -9 -8 -14 -16 -14 -16 -16 -15
-4 -7 -10 -7 -6 -5 -3 -2 -2 -1 -0 -1 -1 -1 -1 -1 -1 -3 -4 -6 -7 -7 -8 -6 -5 -4 -4 -2 -3 -4 -6 -7 -6 -6 -7 -9 -9 -7 -4 -8 -13 -14 -16 -15 -13 -14 -16
-3 -7 -9 -6 -4 -3 -2 -1 -1 -0 -0 -1 -2 -2 -1 -1 -2 -4 -5 -6 -6 -7 -6 -5 -4 -4 -4 -5 -3 -5 -7 -8 -8 -6 -6 -6 -5 -4 -8 -10 -12 -16 -13 -14 -12 -12 -11
-1 -9 -8 -5 -3 -2 -1 -1 -1 0 -0 -1 -2 -2 -2 -2 -3 -5 -5 -6 -6 -5 -4 -3 -3 -3 -5 -6 -4 -6 -8 -9 -8 -6 -7 -9 -8 -7 -11 -12 -11 -10 -9 -9 -10 -10 -9
1 -8 -7 -4 -1 -1 -0 -1 -0 0 1 -0 -2 -3 -3 -3 -5 -5 -6 -6 -5 -4 -3 -2 -2 -2 -7 -4 -4 -8 -8 -8 -8 -6 -7 -8 -7 -9 -10 -9 -9 -7 -7 -7 -7 -9 -9
-0 -7 -5 -3 -0 0 -0 -1 0 1 1 -0 -2 -3 -3 -5 -5 -5 -5 -4 -3 -2 -1 -1 3 -1 -9 -6 -9 -8 -10 -7 -7 -8 -9 -8 -7 -6 -6 -8 -7 -7 -7 -6 -6 -7 -7
-1 -5 -4 -1 0 1 -1 -0 0 1 1 0 -2 -4 -5 -6 -5 -5 -4 -1 0 1 -1 -8 -7 -7 -4 -8 -7 -8 -10 -7 -6 -7 -4 -5 -4 -5 -6 -7 -8 -7 -5 -5 -6 -7 -6
-1 -4 -3 1 0 1 -1 -0 1 1 1 0 -2 -5 -5 -5 -5 -4 -2 2 7 5 -2 -11 -8 -4 -6 -5 -7 -9 -9 -6 -6 -4 -5 -4 -4 -6 -3 -2 -3 -4 -4 -4 -5 -5 -4
-1 -4 -2 1 1 1 -1 -0 0 1 1 0 -2 -5 -5 -4 -4 -2 0 3 5 3 3 -4 -6 -6 -5 -5 -7 -6 -5 -5 -6 -5 -4 -4 -5 -4 -3 -2 -0 0 -2 -2 -3 -5 -3
-1 -3 -1 1 2 1 -0 -0 0 1 1 -0 -3 -4 -4 -4 -3 -2 -1 5 4 1 -2 -5 -6 -7 -5 -6 -7 -6 -6 -5 -4 -4 -4 -3 -1 -2 -2 -2 -1 1 -1 -2 -2 -4 1
-3 -2 0 2 2 0 -0 -0 0 0 1 1 -3 -4 -4 -2 5 3 5 5 1 1 1 -6 -5 -6 -4 -4 -6 -8 -4 -4 -6 -4 -3 -1 -1 -1 -2 -2 -2 0 -2 -2 -2 -1 -1
-3 -2 1 2 2 1 -0 -0 -0 -0 2 1 -2 -3 -4 2 5 4 2 -3 -2 5 1 -3 -4 -5 -6 -4 -4 -6 -3 -3 -4 -2 -2 -2 -3 -3 -2 -2 -3 -3 0 2 3 2 4
-2 -1 2 2 1 1 -0 -1 -0 -0 1 1 -0 -2 -2 3 5 2 -4 -2 3 5 -3 -3 -2 -4 -3 -2 -2 -2 -1 -1 0 0 1 -0 -1 -2 -2 -0 -1 -0 2 5 6 6 6
-2 -0 2 2 1 1 0 -1 -1 -1 1 0 1 -0 2 3 3 1 -4 -2 6 2 -1 -4 -2 -2 -1 -1 -0 -1 -1 -0 -2 0 2 3 3 -1 -3 -2 -0 0 2 5 6 6 4
-1 1 1 1 1 1 -0 -1 -1 -1 -0 0 1 2 2 1 0 -0 -2 3 5 3 -3 -2 -1 -0 -1 -1 -1 -1 -0 -1 -1 -1 2 2 1 -2 -3 -3 -1 0 1 0 4 3 4
-1 2 1 -0 1 1 -0 -1 -1 -1 -1 -0 0 -1 -1 -2 -2 -4 4 5 4 0 -2 -2 0 -0 0 -1 1 1 1 0 0 -2 -2 1 0 -2 -3 -2 -2 -2 -1 3 2 3 4
-0 1 -0 -1 1 1 -0 -1 -1 -1 -2 -2 -1 -3 -1 -2 -4 -3 3 5 5 -2 -0 -3 -1 0 -0 -0 1 2 2 1 2 1 -1 1 -2 -2 -1 -1 -0 0 1 1 2 2 4
1 0 -1 -1 1 1 0 -0 -2 -1 -2 -2 -2 -1 1 0 -4 4 5 4 0 -2 -1 0 1 0 -0 2 4 4 4 2 2 2 -2 -0 1 2 0 -2 -2 -2 0 0 2 2 3
1 -1 -2 -2 1 1 1 -0 -2 -2 -2 -1 -0 8 6 -0 -1 2 2 2 -1 -1 -1 -0 1 1 1 4 5 4 4 2 -2 1 1 -1 1 3 3 2 -2 -0 -0 2 1 1 2
-1 -2 -2 -1 1 1 1 -0 -2 -2 -2 -1 3 4 5 3 -0 -0 3 1 1 0 0 0 0 1 2 4 4 5 4 2 -3 -2 1 1 2 0 3 1 -1 -3 -2 1 1 2 2
-2 -2 -3 -1 0 1 2 1 -1 -2 -2 1 5 2 2 3 4 5 3 2 2 1 0 -0 0 1 2 4 4 5 4 2 -1 -1 1 0 2 1 1 1 -1 -2 -2 -0 1 1 1
-2 -3 -3 -1 0 1 3 2 0 -2 -2 3 6 3 -1 -2 -2 2 4 3 2 2 1 1 1 3 1 2 2 5 2 0 -3 1 3 2 2 -1 2 2 2 0 -2 -0 -1 -1 1
-2 -4 -3 -2 -1 1 3 3 0 -2 -1 3 5 5 -4 3 2 3 4 3 3 1 2 2 2 3 2 3 2 2 1 0 1 2 4 2 1 -1 -2 1 1 -3 0 1 -1 -1 -1
-3 -4 -4 -3 -2 0 3 4 1 -3 -3 1 4 6 3 3 -0 0 4 2 3 2 3 3 2 2 1 1 1 1 1 2 3 4 2 2 1 -1 -2 -3 -5 -4 -1 -1 -1 0 2
-3 -4 -5 -4 -3 -0 3 3 -1 -3 -1 1 5 6 2 3 4 3 4 5 4 4 5 5 3 2 0 -4 -1 -1 -1 -1 1 4 3 1 -0 1 -2 -1 -4 -3 0 0 1 -0 2
-2 -4 -5 -6 -4 -1 2 3 1 -1 -3 2 4 4 1 4 4 4 4 3 4 4 4 5 3 1 1 -2 -1 -2 -3 -3 3 4 2 1 -2 -2 1 -4 -6 -6 -0 -1 -2 2 2
-2 -3 -5 -6 -4 -3 2 2 2 1 2 3 5 3 1 4 5 4 4 3 3 3 4 5 4 3 1 -2 -1 0 3 -1 3 2 2 2 -1 -1 -3 -2 -1 -3 -0 -2 1 -2 3
-2 -3 -4 -5 -5 -4 -1 1 1 0 0 0 3 3 1 4 5 5 3 3 3 3 3 4 3 3 1 0 -1 1 -0 2 2 1 3 3 3 2 1 -0 -0 -3 -0 1 -0 -3 -0
-1 -2 -3 -4 -6 -5 -4 -2 -0 -1 -2 -2 -1 1 1 1 5 5 5 4 2 2 2 4 1 3 2 1 -1 1 0 3 1 2 1 1 -0 1 1 1 -3 -2 -1 -1 -2 -3 1

GFSGBSN_850_dewp_024.txt.gz
Dewpoint
1 0 -8 -11 -9 -9 -8 -8 -5 -4 -2 -2 -1 -1 -1 -1 -1 -0 -1 -2 -4 -6 -8 -8 -8 -6 -4 -5 -7 -3 -6 -6 -5 -5 -6 -6 -6 -5 -4 -5 -7 -9 -14 -14 -15 -12 -4
2 2 -4 -9 -9 -9 -7 -7 -4 -3 -1 -1 -1 -1 -3 -2 -1 -0 -1 -3 -5 -6 -7 -8 -6 -4 -4 0 -5 -3 -6 -5 -6 -7 -8 -6 -9 -7 -4 -7 -10 -11 -16 -14 -14 -15 -15
2 2 -0 -7 -8 -9 -7 -4 -3 -1 -1 -0 -1 -2 -2 -2 -1 -1 -2 -3 -5 -6 -7 -6 -4 -3 -3 -6 -4 -4 -6 -7 -7 -7 -6 -6 -8 -6 -5 -9 -12 -15 -14 -13 -12 -12 -10
1 2 0 -5 -8 -8 -6 -3 -1 -1 -0 -0 -1 -2 -3 -2 -2 -2 -3 -4 -6 -6 -5 -4 -3 -2 -6 -7 -5 -4 -8 -9 -8 -7 -6 -5 -6 -4 -4 -11 -10 -10 -10 -11 -12 -10 -10
3 1 -0 -4 -7 -8 -4 -1 -0 -1 0 0 -0 -2 -3 -2 -3 -3 -4 -5 -5 -4 -3 -2 -1 -1 -5 -6 -4 -7 -8 -9 -8 -6 -6 -6 -6 -8 -11 -9 -9 -8 -7 -7 -7 -9 -10
3 2 1 -4 -7 -7 -3 -0 -1 -0 1 1 -0 -3 -3 -3 -3 -3 -5 -4 -4 -2 -1 -0 3 1 -8 -6 -7 -8 -9 -9 -6 -6 -7 -7 -7 -6 -6 -11 -9 -8 -7 -7 -7 -8 -7
4 3 0 -3 -7 -5 -1 0 -0 0 1 1 -1 -3 -4 -4 -4 -4 -4 -2 1 1 0 -6 -6 -6 -3 -7 -8 -8 -8 -8 -5 -6 -4 -5 -5 -5 -6 -7 -9 -7 -6 -6 -6 -7 -0
4 4 -1 -3 -7 -3 -0 -0 -0 1 1 1 -1 -4 -5 -5 -5 -4 -2 2 7 4 2 -7 -7 -5 -7 -5 -5 -9 -9 -6 -6 -4 -5 -4 -4 -6 -3 -3 -4 -4 -4 -4 -4 -4 0
5 5 -0 -3 -6 -2 0 -0 -0 1 1 0 -1 -4 -5 -4 -4 -3 0 2 5 5 3 -3 -6 -9 -5 -5 -7 -6 -5 -5 -6 -5 -4 -3 -5 -4 -3 -1 -1 -0 -3 -2 -3 -2 -2
5 5 1 -4 -5 -1 1 -0 0 1 1 0 -1 -4 -4 -3 -2 -2 -1 5 5 4 -2 -4 -5 -6 -6 -6 -6 -6 -5 -5 -5 -4 -3 -1 -2 -3 -3 -2 -2 -0 -1 -2 -3 -2 1
6 6 1 -4 -4 0 1 -0 0 0 1 0 -1 -3 -3 -2 -1 -0 5 4 2 3 1 -6 -6 -6 -4 -4 -7 -6 -3 -4 -4 -3 -3 -1 -2 -2 -2 -2 -2 0 -1 -2 -2 -0 -1
7 6 1 -4 -3 1 1 0 0 0 1 1 -0 -2 -2 3 4 5 2 -2 -0 4 1 -4 -4 -5 -5 -4 -4 -4 -3 -4 -3 -1 -2 -1 -2 -2 -2 -2 -3 -2 1 1 2 2 3
7 7 1 -3 -1 1 1 1 0 0 1 2 1 -2 -2 4 5 2 -3 -0 2 5 -3 -3 -3 -5 -3 -2 -1 -2 -1 -1 -1 1 1 -1 -1 -2 -2 -0 -2 1 2 5 5 5 5
7 7 1 -2 0 2 1 1 0 0 1 1 2 -0 -1 5 4 0 -2 -3 2 2 -2 -4 -3 -3 -1 -1 -1 -1 -1 -0 -2 -0 1 1 0 -2 -3 -2 -0 -0 2 5 6 6 5
4 7 2 -1 1 2 1 1 0 0 1 0 2 2 5 2 0 -1 -4 1 2 3 -3 -2 -2 -0 -0 -1 -1 -0 -0 -1 -1 -1 2 2 1 -2 -3 -3 -1 0 1 0 4 3 4
4 7 2 -1 2 2 1 1 0 -0 0 1 2 5 3 -1 -2 -2 -0 1 4 2 -2 -3 -1 -1 0 0 0 1 1 1 -0 -0 -2 0 0 -2 -3 -2 -2 -2 -1 2 2 2 3
4 7 1 -0 2 1 0 1 0 -0 -0 2 5 1 2 -2 -3 -4 -1 1 5 -0 -0 -2 -1 0 -1 -0 1 2 2 1 1 1 -1 -1 -1 -1 -2 -1 0 0 1 1 2 2 3
4 6 0 1 1 1 1 0 0 -0 -1 2 2 -2 3 -3 -2 2 3 4 3 -2 -1 1 0 -1 -1 2 3 3 3 2 1 2 -1 -0 1 2 -1 -2 -1 -2 -0 -1 1 0 2
6 4 0 1 0 1 1 0 0 -0 -1 1 -1 7 5 -2 -0 2 1 2 0 -2 -0 0 1 1 2 4 4 4 3 1 -2 -0 -0 -1 1 3 1 -1 -3 -0 1 1 -0 1 2
5 2 1 0 -0 1 1 0 0 -1 -1 2 1 6 6 4 -4 -1 1 2 1 0 0 0 1 1 2 4 4 5 4 2 -2 -1 1 -1 1 -0 1 -2 -1 -2 -0 1 -0 2 1
3 1 0 -1 -0 1 1 1 -0 -1 -1 2 1 3 3 4 5 -0 1 1 2 1 0 -0 1 1 2 4 4 4 3 1 -2 0 2 -1 1 0 1 1 -1 -3 -2 1 0 -1 0
1 1 -1 -2 0 1 1 1 -1 -1 -0 5 5 1 -0 1 4 3 3 3 2 1 1 1 1 2 1 3 2 4 2 -1 -6 2 2 1 1 -2 2 2 1 1 -2 -2 -1 -1 0
1 -1 -2 -1 0 1 2 1 -1 -1 -0 4 5 2 -1 2 3 3 4 3 2 2 2 1 1 2 2 2 2 2 -0 -0 -0 2 3 1 1 -2 -3 0 -1 -2 -1 -0 -0 -1 -1
-0 -2 -2 -0 1 1 2 2 -0 -1 -1 2 4 3 1 1 1 3 3 2 2 1 3 2 1 1 2 2 1 1 2 3 3 3 1 1 -0 -3 -2 -3 -4 -4 -3 -1 -1 -1 -2
-1 -2 -1 -0 0 2 3 3 0 -2 -0 1 4 5 2 1 -0 1 4 5 4 4 4 4 3 1 0 -3 -0 0 -0 -0 1 3 1 -1 -1 1 -2 -1 -4 -7 -4 0 0 -1 1
-2 -2 -2 -1 -0 2 4 3 1 -2 -0 1 4 5 2 2 3 1 4 3 3 3 3 5 3 0 1 -2 -2 -1 -0 -1 1 3 2 -1 -3 -2 -1 -4 -6 -6 -3 -1 -2 2 -1
-2 -2 -2 -1 1 3 3 3 0 -2 -1 0 3 4 2 5 6 3 3 3 2 3 3 4 3 3 -0 -2 -2 -1 -1 -2 1 1 3 1 0 -2 -3 -3 -2 -5 -1 -2 1 -1 0
-2 -2 -2 -1 2 3 3 2 -1 -1 -1 3 4 4 2 5 6 5 3 2 2 2 3 4 3 3 0 -0 -1 -0 -1 1 1 0 3 3 3 1 -0 -2 0 -4 -0 0 -1 -4 -3
-2 -3 -2 -1 1 3 4 4 2 0 3 3 3 2 2 3 5 5 5 3 1 1 2 4 2 3 1 0 -2 -1 0 1 0 2 0 2 0 1 -0 1 -4 -3 -1 -1 -2 -3 -2

GFSGBSN_850_dewp_027.txt.gz
Dewpoint
4 1 0 0 -1 -9 -11 -10 -9 -8 -6 -4 -2 -2 -1 -1 -1 -2 -1 -1 -2 -4 -6 -7 -9 -9 -5 -4 -10 -3 -5 -5 -4 -3 -4 -7 -6 -6 -2 -3 -6 -7 -10 -13 -14 -3 1
8 2 1 -0 0 -7 -9 -9 -9 -7 -5 -2 -1 -1 -1 -2 -2 -1 -1 -2 -4 -5 -7 -8 -8 -6 -4 -0 -6 -3 -5 -5 -5 -5 -5 -4 -8 -7 -4 -6 -7 -9 -14 -13 -14 -9 -3
8 6 2 1 -1 -5 -8 -9 -8 -6 -3 -1 -1 -0 -2 -2 -2 -1 -2 -3 -5 -6 -7 -7 -5 -4 -3 -7 -4 -5 -5 -5 -6 -6 -6 -8 -7 -5 -4 -6 -10 -15 -12 -11 -11 -12 -10
9 8 3 1 -1 -2 -8 -9 -8 -5 -2 -1 -0 -0 -1 -2 -2 -1 -2 -5 -6 -6 -6 -5 -3 -2 -6 -8 -6 -5 -5 -8 -8 -6 -6 -5 -4 -6 -5 -10 -10 -10 -8 -10 -10 -10 -10
9 9 5 2 -1 -2 -7 -9 -8 -3 -1 -1 -0 0 -1 -2 -2 -2 -4 -5 -6 -5 -4 -2 -1 -0 -6 -6 -5 -6 -8 -8 -7 -7 -6 -5 -4 -4 -11 -7 -6 -6 -7 -6 -8 -7 -9
8 9 7 3 0 -1 -7 -8 -6 -3 -1 -0 0 0 -1 -2 -2 -3 -5 -5 -4 -3 -1 0 2 2 -6 -6 -5 -8 -8 -9 -5 -6 -5 -5 -6 -5 -6 -8 -5 -6 -6 -6 -6 -6 -3
8 8 8 4 3 -2 -7 -8 -5 -1 -1 0 1 0 -1 -3 -2 -4 -5 -3 2 3 0 -5 -5 -4 -3 -8 -7 -8 -8 -7 -5 -6 -3 -5 -5 -4 -5 -8 -10 -7 -6 -6 -5 -5 3
7 7 8 5 4 0 -6 -8 -3 -0 -0 0 1 0 -2 -3 -3 -5 -4 -0 2 4 3 -6 -6 -5 -7 -6 -5 -9 -8 -7 -7 -3 -5 -3 -3 -5 -2 -4 -4 -4 -3 -3 -2 -2 2
5 7 8 6 4 3 -5 -8 -2 -0 0 1 1 0 -3 -3 -4 -4 -2 4 5 7 5 -1 -8 -10 -7 -4 -6 -7 -7 -6 -5 -4 -4 -2 -4 -3 -2 -2 -1 -1 -1 -2 -1 -0 0
-1 7 8 7 5 4 -3 -7 -1 -0 1 1 1 -0 -3 -4 -3 -3 0 1 6 6 -0 -3 -4 -5 -5 -5 -6 -6 -5 -5 -4 -3 -1 -0 -2 -3 -2 -1 -2 2 -1 -2 -2 -1 0
-2 3 7 8 5 5 -4 -5 0 0 1 1 1 -0 -3 -2 -1 -2 2 5 4 5 2 -5 -6 -6 -4 -6 -7 -4 -3 -4 -3 -3 -2 -0 -2 -2 -1 -2 -2 1 -1 -1 -2 -1 -0
-1 -1 5 7 5 5 -4 -4 1 0 1 1 1 0 -1 -1 1 1 6 1 4 5 5 -4 -4 -5 -3 -4 -4 -3 -3 -4 -3 -1 -1 -1 -3 -2 -2 -1 -2 0 1 2 2 2 2
-0 -1 3 7 6 5 -2 -3 1 1 1 1 1 0 -1 -0 4 5 1 4 3 5 -2 -3 -3 -5 -3 -1 -2 -2 -1 0 -0 2 2 -0 -1 -2 -2 0 -1 1 2 5 6 6 5
0 -0 1 6 7 5 -3 -1 1 1 1 1 2 1 -1 2 7 5 3 -1 2 1 0 -4 -3 -2 -0 -1 -1 -1 -1 1 -1 -0 1 1 2 -2 -3 -1 -0 1 2 7 5 7 6
0 -1 -0 5 7 5 -2 0 1 1 1 1 1 2 2 2 6 2 -1 2 2 2 -2 -1 -2 0 -0 -1 -1 0 0 -0 -1 -1 2 2 1 -2 -3 -2 -1 1 1 1 4 3 4
-0 -0 2 5 7 4 -2 2 2 2 1 1 1 2 2 6 1 3 0 1 0 2 -2 -3 -0 -1 1 0 1 1 1 1 -0 -0 -1 1 2 -2 -3 -2 -1 -0 -0 3 2 3 2
-1 0 3 5 7 3 -1 2 1 2 1 1 1 4 4 4 2 -0 1 -0 4 4 -0 -2 -0 0 1 1 1 2 1 1 1 1 -1 -2 1 0 -1 -0 1 1 2 2 1 2 2
-1 0 1 4 6 2 1 2 2 2 1 1 5 1 5 1 -1 1 2 1 3 -1 -0 0 -1 -0 0 1 3 3 3 1 1 2 1 -0 2 4 -1 -1 -1 -1 0 0 2 1 3
0 -1 1 3 6 2 2 1 2 2 1 2 3 7 6 2 2 3 1 2 1 -2 -0 0 2 1 2 4 4 4 3 1 -1 -0 2 0 2 4 2 -1 -2 0 1 -0 0 2 3
0 -1 1 2 6 2 2 1 2 1 1 4 3 7 7 2 -4 -0 2 1 1 0 0 0 2 2 4 4 4 5 4 1 -2 0 0 -1 1 1 2 -1 -0 -0 2 -0 0 3 1
0 1 1 3 5 2 1 2 1 1 1 4 3 4 5 5 2 -1 -1 2 2 2 0 -0 1 1 3 5 4 4 3 0 -1 1 2 -0 2 1 1 1 -1 -3 -1 1 -0 -0 2
0 1 2 5 3 1 1 2 1 1 0 4 2 2 1 2 -0 1 2 3 2 2 1 1 3 2 1 4 2 5 3 -0 -3 2 2 1 3 -0 2 1 1 1 -1 -2 0 -0 -0
1 1 4 4 1 -0 2 2 1 0 0 4 5 0 -3 2 3 1 3 3 2 2 2 1 1 2 2 2 2 1 -1 -1 -1 3 3 1 2 0 1 -1 -2 0 -0 -1 -1 -1 -1
2 4 5 2 -1 1 2 2 1 0 0 3 3 -0 -3 1 3 1 3 2 2 1 3 2 1 1 2 1 1 1 2 2 2 1 0 1 -1 -2 1 -1 -0 -3 -2 -2 -1 -1 -2
4 4 1 -1 1 2 2 2 1 -0 -0 3 3 1 -1 1 1 2 4 4 4 4 4 4 3 2 1 -1 2 2 2 2 2 1 -1 -1 -0 1 3 0 -3 -7 -5 -1 1 -2 -2
3 1 -1 0 2 2 2 2 0 -1 0 3 4 5 2 0 2 2 4 3 4 4 4 4 2 1 -1 -2 1 3 4 1 1 3 1 -1 -2 2 0 -1 -1 -4 -6 -1 -2 3 -2
0 -1 -0 1 2 2 3 2 -0 -1 1 3 3 5 3 1 1 3 4 4 2 3 4 3 1 2 -1 0 2 2 1 -1 0 1 4 4 3 3 -1 2 -0 -4 -4 -2 0 1 -4
-1 -0 1 1 1 3 3 2 0 -0 1 2 2 4 3 5 5 4 2 2 2 2 5 3 3 3 1 3 3 2 3 2 1 -0 3 3 4 4 1 2 3 -5 -1 2 -0 -3 -5
0 1 1 2 4 3 4 3 1 -0 1 1 4 5 4 4 6 5 4 2 2 1 2 3 2 2 1 3 1 1 3 2 1 3 1 2 2 3 1 2 -3 -4 -1 -2 -2 -2 -4

GFSGBSN_850_dewp_030.txt.gz
Dewpoint
9 8 8 5 1 -0 -2 -9 -11 -10 -9 -9 -8 -3 -3 -1 -2 -2 -2 -1 -1 -2 -4 -6 -9 -9 -8 -1 -2 -4 -5 -11 -9 -7 -3 -6 -7 -8 -10 -9 -6 -7 -9 -10 -4 -1 -3
9 8 8 8 3 1 -1 -6 -10 -9 -9 -9 -7 -2 -1 -1 -2 -2 -2 -1 -2 -3 -5 -7 -8 -8 -6 0 -8 -4 -5 -5 -7 -5 -3 -4 -6 -7 -5 -5 -6 -7 -10 -13 -11 -4 -0
8 9 8 8 7 1 -2 -4 -9 -8 -8 -8 -4 -2 -0 -1 -2 -2 -2 -2 -4 -5 -6 -7 -7 -6 -4 -1 -5 -4 -5 -4 -5 -5 -4 -4 -5 -6 -4 -4 -8 -11 -11 -12 -13 -9 -2
7 8 6 9 8 4 0 -2 -7 -8 -8 -6 -3 -1 0 -0 -2 -2 -2 -3 -4 -5 -6 -6 -5 -4 1 -9 -6 -5 -4 -6 -6 -4 -3 -3 -3 -4 -4 -8 -11 -12 -12 -10 -10 -9 -8
5 7 8 7 8 6 2 -1 -5 -8 -7 -4 -2 -1 0 -0 -2 -3 -3 -5 -4 -5 -5 -4 -2 -1 0 -6 -5 -5 -7 -6 -7 -5 -3 -4 -3 -4 -5 -7 -8 -10 -9 -10 -8 -7 -8
2 6 8 6 6 8 3 0 -3 -8 -8 -3 -1 0 1 -0 -2 -4 -4 -4 -4 -4 -3 -1 -0 4 -5 -5 -4 -8 -9 -7 -3 -3 -2 -3 -4 -5 -7 -8 -4 -7 -7 -12 -10 -6 -9
3 3 7 7 8 8 5 2 -2 -8 -7 -2 -1 1 1 -1 -3 -4 -4 -3 2 3 -1 0 -2 1 -4 -5 -6 -8 -8 -6 -4 -4 -4 -4 -4 -6 -9 -9 -10 -10 -8 -8 -7 -1 -4
1 1 6 7 8 8 6 3 -1 -7 -6 -1 -0 1 1 -1 -4 -4 -4 4 2 4 2 -4 -3 -4 -7 -8 -4 -8 -8 -6 -5 -6 -5 -4 -5 -4 -4 -7 -7 -8 -7 -3 -3 -2 -1
-0 0 1 6 8 7 8 4 0 -7 -4 -0 0 1 1 -2 -4 -4 -4 -1 5 6 5 0 -3 -4 -7 -6 -6 -8 -6 -5 -6 -6 -4 -4 -3 -3 -4 -5 -4 -3 -4 -2 -3 -1 -0
0 0 -1 5 7 7 8 4 2 -5 -3 0 1 1 0 -3 -3 -4 -3 0 2 7 -0 -4 -3 -3 -4 -4 -6 -5 -6 -6 -5 -5 -2 -2 -3 -3 -3 -3 -3 -2 -3 -3 -1 -2 -3
-1 0 0 0 5 7 8 5 3 -5 -2 1 1 1 0 -3 -2 -3 2 -0 6 5 -0 -5 -4 -6 -4 -6 -6 -4 -4 -4 -7 -3 -2 -1 -2 -3 -3 -1 -2 -1 -3 -3 -3 -3 -2
-2 -2 -1 1 0 6 7 6 4 -5 -1 1 1 2 1 -3 -1 -2 3 7 5 4 1 -4 -5 -5 -4 -5 -5 -3 -2 -3 -2 -2 -2 -1 -2 -2 -2 -1 -2 -1 -1 -1 -1 -1 1
-2 -2 -1 -1 -2 4 7 6 4 -3 0 1 1 2 -0 -3 3 1 6 6 3 3 -3 -3 -4 -5 -5 -4 -3 -2 -2 -2 -4 0 1 -1 -1 -2 -2 -0 -0 0 0 -0 3 2 1
-3 -2 -2 -1 -1 0 7 7 4 -1 1 2 2 2 -0 -1 4 8 6 3 2 -3 -3 -4 -4 -4 -3 -3 -1 -1 -1 -2 -1 -2 -1 -1 1 -2 -2 -1 -2 -1 -1 -1 -2 1 -0
-2 -2 -3 -2 -0 0 6 7 5 -1 2 2 2 2 0 -2 1 7 4 4 -0 -0 -2 -3 -4 -3 -1 -2 -2 -1 -1 -1 -1 -1 -3 -1 -1 -2 -2 -2 -1 -0 -0 1 4 4 5
-3 -2 -2 -2 0 0 4 7 5 1 2 2 2 2 1 -2 1 3 5 2 -1 0 -2 -4 -3 -4 -1 -2 -2 -0 0 -0 -0 -0 -0 -0 1 -1 -1 -2 -1 -0 -1 1 2 4 -0
-4 -2 -1 -1 1 -0 4 7 5 1 2 2 4 3 2 0 3 6 3 0 -1 2 -0 -3 -4 -2 -2 -0 -4 -2 -0 0 -0 -0 -1 -2 -1 1 -0 -0 -0 1 0 -0 -1 2 -2
-4 -3 -2 -0 1 0 3 6 5 2 3 3 4 3 3 3 5 3 2 -1 2 -0 0 -1 -2 -2 -1 -0 1 -3 -1 -1 1 -0 0 -1 1 3 1 -1 -1 -1 -1 -2 -1 -0 3
-3 -2 -2 -2 1 4 5 6 3 2 3 4 3 6 8 6 5 5 1 -1 2 -1 -0 1 -0 -0 1 2 2 2 2 1 0 0 1 0 2 3 2 -0 -1 -0 -0 -2 -0 1 2
-3 -2 -3 -2 1 2 4 6 2 2 3 3 3 7 7 4 0 0 0 -0 1 1 1 1 2 2 3 3 3 4 3 1 0 0 -1 -2 2 1 2 -1 -2 -0 0 -2 -3 1 -2
-6 -3 -3 0 -0 1 4 5 2 3 2 5 4 3 4 5 2 0 -1 -1 0 2 1 1 2 1 2 5 4 4 3 -0 1 2 2 1 2 1 -1 -1 -1 -2 -2 -1 -2 -3 -1
-7 -3 -2 -1 -0 0 3 4 2 3 2 6 3 4 3 1 -1 -1 0 0 -0 1 1 1 2 2 3 4 1 4 2 0 1 2 2 1 3 1 2 0 -0 -0 -2 -3 -1 -2 -2
-5 -3 -1 -0 1 1 3 4 2 3 2 5 3 1 0 3 1 1 -0 -1 -2 2 3 1 2 3 3 3 3 2 1 -0 -1 2 3 2 3 2 1 -0 -0 5 0 -2 -3 -2 -2
-2 -1 0 -0 1 3 5 2 3 3 3 5 2 0 2 4 2 -2 -1 -0 1 2 3 3 2 2 3 3 1 1 1 1 0 1 0 2 1 2 4 2 8 -6 -4 -4 -3 -4 -5
-2 0 0 2 2 5 4 1 3 3 2 4 2 -1 -0 8 1 -1 -0 1 3 4 4 4 4 3 2 2 3 4 5 7 4 1 -0 -1 1 4 8 0 -4 -11 -6 -5 -2 -5 -6
-0 1 1 4 5 4 1 2 3 2 2 4 3 -0 -2 5 4 -1 1 3 4 5 5 4 3 2 -1 2 5 7 6 2 3 4 1 -1 -0 2 3 10 10 -4 -4 -2 -2 -2 -5
1 2 4 5 3 0 2 3 3 2 2 5 4 3 0 5 2 3 1 4 4 4 6 3 3 3 0 6 11 8 5 -1 2 3 6 6 6 8 4 8 1 -5 -6 -1 -0 -2 -3
4 3 2 1 0 2 2 2 3 1 2 5 3 2 3 5 5 4 2 4 4 4 6 4 4 4 4 9 9 6 9 2 1 -1 3 4 7 8 4 9 8 -4 -1 2 -1 -1 -1
2 1 0 1 2 2 2 3 3 0 1 4 4 4 3 4 7 4 3 2 2 4 5 3 4 3 3 6 7 6 7 5 5 5 0 3 2 3 2 1 -3 -3 -1 -1 0 -0 -0

GFSGBSN_850_dewp_033.txt.gz
Dewpoint
7 8 9 9 8 8 4 0 -4 -8 -11 -10 -8 -8 -5 -3 -2 -2 -4 -4 -2 -1 -3 -6 -8 -9 -9 4 -2 -2 -5 -9 -14 -6 -4 -7 -10 -10 -10 -12 -11 -7 -9 -8 -1 -1 -1
8 6 9 9 8 8 8 2 -3 -7 -10 -9 -8 -7 -4 -2 -1 -2 -3 -3 -2 -3 -5 -7 -8 -8 -4 1 -5 -1 -5 -6 -7 -4 -6 -9 -10 -10 -9 -10 -8 -9 -9 -6 -4 -2 -3
-14 7 7 9 7 8 8 5 0 -4 -10 -9 -8 -6 -3 -1 -1 -2 -3 -3 -3 -4 -6 -8 -8 -6 3 -0 -3 1 -2 -2 -5 -5 -6 -5 -7 -7 -5 -5 -7 -9 -8 -7 -6 -5 -2
-27 -7 7 7 9 8 8 8 2 -1 -6 -8 -8 -5 -2 -0 -0 -2 -3 -3 -4 -5 -7 -8 -7 -2 3 -3 -3 -3 -0 -2 -2 -4 -5 -3 -4 -5 -5 -6 -7 -10 -10 -6 -8 -8 -3
-23 -24 -2 5 7 8 7 8 5 0 -3 -7 -7 -4 -2 0 -0 -3 -3 -3 -5 -5 -7 -6 -2 4 1 -4 -5 -4 -4 -4 -2 -2 -3 -3 -3 -3 -5 -4 -6 -10 -6 -7 -8 -10 -6
-20 -15 -9 3 6 7 7 9 7 2 -1 -6 -6 -2 -1 0 -1 -3 -3 -3 -5 -6 -6 -3 5 6 -0 -4 -4 -6 -5 -4 -2 -2 -2 -3 -3 -3 -4 -5 -5 -5 -6 -8 -9 -8 -7
-18 -8 -3 2 4 6 7 8 8 4 0 -5 -5 -1 0 1 -1 -3 -3 -4 3 6 -1 2 -1 -2 -4 -5 -5 -6 -7 -5 -3 -2 -3 -3 -3 -3 -6 -7 -5 -7 -8 -10 -9 -7 -9
-19 -10 -2 0 1 6 7 7 9 5 2 -4 -5 -0 1 0 -1 -2 -3 3 4 6 4 -2 -2 -2 -2 -4 -5 -8 -7 -5 -4 -3 -5 -4 -3 -5 -6 -8 -8 -9 -9 -6 -7 -7 -5
-4 -12 -4 -4 -1 5 7 8 9 6 3 -2 -5 1 1 0 -1 -3 -5 2 6 6 6 -1 -2 -2 -5 -5 -8 -8 -7 -7 -5 -3 -2 -1 1 -4 -5 -8 -8 -8 -7 -6 -6 -5 -6
1 1 0 -0 -2 1 6 8 8 8 4 -1 -4 1 1 1 -1 1 0 -3 2 4 6 -3 -4 -5 -5 -5 -6 -7 -7 -7 -4 -2 -5 -1 -4 -5 -5 -6 -7 -4 -4 -5 -4 -3 -3
1 1 1 -1 -1 -2 5 7 8 8 4 1 -2 1 1 1 7 3 6 4 6 8 4 -6 -6 -5 -5 -6 -7 -7 -5 -7 -6 -5 -4 -1 -3 -5 -4 -3 -4 -1 -4 -4 -4 -5 -1
0 0 0 0 -2 -2 2 6 7 8 5 1 -2 2 2 1 -1 5 6 9 9 8 4 -4 -5 -6 -6 -6 -8 -6 -7 -7 -5 -5 -5 -3 -3 -3 -3 -3 -3 -3 -2 -2 -3 -4 0
1 0 0 1 -1 -1 1 5 7 8 5 2 -1 2 2 0 2 6 5 8 6 5 -5 -5 -5 -6 -6 -5 -6 -7 -6 -5 -6 -4 -4 -5 -3 -3 -3 -2 -2 -3 -2 2 2 1 1
0 1 0 -0 -2 -2 0 2 5 8 6 3 -0 2 2 1 5 6 9 6 6 -3 -3 -7 -7 -6 -5 -6 -7 -6 -6 -6 -8 -5 -5 -2 1 -3 -3 -2 -3 -2 -4 1 1 -1 -3
-1 0 1 -1 -3 -2 -2 -0 3 7 7 3 1 3 3 -0 2 8 8 7 3 -4 -6 -5 -5 -4 -5 -5 -5 -5 -5 -8 -7 -7 -2 -2 -1 -3 -3 -3 -4 -3 -1 -2 1 5 2
-3 -1 -0 -1 -3 -1 -1 -1 1 7 7 4 3 5 4 3 -1 8 7 5 0 -4 -4 -6 -4 -5 -3 -3 -5 -4 -4 -5 -3 -2 -2 -3 -1 -3 -2 -2 -2 -1 -3 -1 -1 3 1
-3 -2 -0 -0 -2 -3 -3 -1 -0 6 7 2 5 5 1 5 0 7 7 3 -1 -4 -3 -4 -5 -5 -4 -4 -6 -4 -4 -1 -2 -1 -2 -4 -4 0 -2 -1 -3 0 -1 -3 -2 0 1
-3 -4 -1 -0 -2 -1 -3 -1 -0 6 6 2 5 4 8 3 4 6 5 1 -3 -4 -0 -3 -3 -5 -5 -4 -3 -5 -4 -4 -2 -2 -2 -2 -2 1 0 -2 -2 -2 -2 -2 1 -1 -0
-3 -2 -0 -1 -1 -1 -1 0 1 4 6 4 5 5 9 6 7 8 2 -1 -3 -2 -1 -2 -4 -4 -5 -3 -2 -4 -5 2 1 0 -2 -1 -2 1 1 -0 -2 -3 -4 -3 -4 -1 -1
-2 -2 -0 -2 -3 -1 1 1 1 4 5 4 4 7 8 8 3 4 3 0 -0 -2 -2 -3 -5 -1 -1 -2 -1 -1 -1 1 1 -0 -1 -1 -2 -0 2 -1 -3 0 -3 -4 -2 1 -2
-3 -0 -1 -2 -3 -2 -0 1 3 4 4 5 4 3 4 7 6 3 1 -1 -1 0 -1 -1 -1 -0 -0 1 1 2 1 1 1 1 -0 1 1 -1 -2 -1 -2 -3 -4 -3 -3 -4 -1
-1 -1 -1 -2 -1 -2 -1 1 3 4 3 6 3 1 2 3 3 2 1 -0 -2 -1 0 1 -1 -2 -2 -0 1 1 2 1 1 2 2 0 2 2 3 0 -1 -1 -2 -5 -5 -5 -6
-3 -1 -2 -1 -2 -2 -2 1 3 5 3 5 5 1 1 4 5 3 2 -1 -2 0 3 -1 -2 -1 0 2 3 2 1 -0 -0 3 3 3 2 2 0 -1 -1 5 1 -2 -5 -6 -5
-5 -4 -5 -2 -2 -2 -1 1 3 4 3 4 5 3 3 7 5 1 -1 -2 -2 1 1 1 0 1 4 2 2 1 1 0 0 1 1 3 3 4 4 4 7 -7 -7 -7 -5 -6 -8
-9 -7 -5 -3 -2 -0 -0 1 3 4 3 5 5 3 2 10 1 -1 -2 -2 -3 1 2 3 4 3 3 2 3 4 5 6 2 -1 -2 -1 1 5 9 -0 -4 -8 -10 -7 -5 -7 -7
-6 -4 -4 -2 -1 -0 0 1 2 3 3 5 7 6 1 7 3 -3 -3 -3 2 4 5 4 4 3 3 4 6 5 5 1 4 4 -1 -1 -0 2 3 9 9 -1 -5 -4 -4 -2 -6
-3 -2 -1 -1 0 1 1 2 4 3 3 5 9 2 -0 -1 -3 -3 -2 -1 -1 1 3 5 4 4 3 8 10 8 5 1 3 5 7 6 7 8 5 8 3 -4 -5 -3 -0 1 -3
-1 -1 0 1 1 2 3 3 2 3 3 6 9 2 2 4 4 3 0 -1 1 0 7 4 4 4 4 8 10 7 9 3 2 -0 4 5 7 8 6 9 8 -5 -3 -0 1 -4 -4
-0 1 1 1 3 4 3 2 3 3 4 7 9 4 4 5 7 8 5 3 4 4 2 4 2 4 4 5 9 9 9 7 6 4 -1 3 2 3 2 2 -3 -4 -4 -4 -3 -1 -2

GFSGBSN_850_dewp_036.txt.gz
Dewpoint
-4 5 8 7 7 9 9 8 6 2 -1 -7 -10 -9 -9 -8 -6 -3 -2 -4 -4 -3 -4 -5 -7 -10 -10 5 -1 0 -6 -5 -15 -11 -3 -6 -7 -11 -10 -11 -11 -11 -9 -9 -0 -0 -0
-33 -19 5 8 6 7 8 8 8 4 0 -3 -9 -9 -8 -7 -5 -2 -2 -4 -3 -3 -5 -7 -8 -9 -6 1 -5 -1 -4 -6 -9 -8 -3 -6 -11 -11 -10 -11 -12 -10 -8 -2 -1 -4 -2
-34 -33 -27 4 7 6 8 6 8 7 2 -1 -7 -8 -7 -6 -3 -1 -2 -4 -3 -5 -6 -7 -8 -7 3 -4 -2 -0 -1 -4 -6 -4 -6 -7 -9 -8 -8 -6 -8 -8 -8 -5 -5 -4 -1
-33 -34 -33 -27 6 7 6 7 7 8 5 1 -2 -7 -7 -4 -2 -1 -2 -4 -4 -6 -6 -8 -7 -3 3 -2 -3 -3 -2 -1 -2 -5 -6 -5 -5 -5 -5 -4 -7 -7 -6 -4 -5 -7 -2
-32 -33 -33 -33 -23 6 6 7 6 8 7 2 -0 -5 -7 -3 -1 -1 -2 -4 -5 -6 -7 -7 -1 5 3 -2 -3 -5 -4 -4 -3 -3 -4 -4 -3 -4 -4 -3 -4 -7 -4 -7 -5 -9 -4
-30 -32 -31 -31 -29 -18 5 4 6 6 8 4 1 -4 -6 -2 -1 -0 -2 -4 -7 -7 -5 -5 1 4 -1 -2 -6 -5 -5 -5 -3 -3 -2 -3 -3 -3 -3 -3 1 -3 -4 -4 -7 -10 -8
-26 -29 -30 -23 -23 -25 -9 5 6 5 9 6 2 -3 -5 -1 -0 -0 -2 -6 4 6 4 0 0 -1 -4 -5 -5 -6 -7 -6 -3 -2 -1 -2 -2 -2 -3 -2 -3 -4 -4 -6 -9 -10 -8
-21 -22 -23 -25 -19 -20 -23 1 6 6 8 7 3 -2 -4 -1 0 0 -2 5 4 6 6 3 -5 -1 -2 -2 -5 -7 -8 -6 -4 -2 1 0 -3 -1 -2 -4 -4 -5 -5 -3 -8 -10 -9
-5 -12 -18 -16 -17 -16 -19 -4 4 7 7 8 4 -0 -4 0 1 -0 -3 -3 4 5 5 0 -3 -4 -3 -4 -6 -8 -8 -7 -3 0 0 2 -1 -0 -4 -6 -4 -6 -7 -3 -5 -8 -10
-4 0 -2 -11 -12 -10 -14 -15 4 4 8 9 4 1 -3 1 0 -1 2 -6 2 4 5 -0 -3 -5 -4 -6 -6 -9 -9 -9 1 1 0 3 -1 -2 -4 -5 -7 -5 -3 -4 -5 -4 -3
-3 1 1 2 -1 -4 -6 -15 1 4 7 8 5 2 -3 1 6 4 6 3 7 9 9 -4 -4 -6 -6 -6 -7 -8 -7 -8 -5 -4 -3 4 3 0 -5 -3 -3 -2 -2 -2 -6 -5 1
-0 -2 1 1 1 2 1 -9 -6 6 7 8 5 2 -1 2 1 3 7 8 8 9 6 -4 -7 -5 -6 -6 -8 -8 -8 -7 -6 -5 -6 0 1 3 -1 -3 -4 -2 -2 -3 -3 -2 7
0 -2 -2 0 1 1 1 -4 -9 5 7 8 6 3 -1 3 4 1 5 10 8 6 -5 -4 -5 -5 -6 -6 -7 -8 -5 -7 -5 -1 -2 -5 -4 -3 -3 -0 -4 -5 -3 4 9 10 6
-1 -0 -2 -1 0 1 1 -1 -6 3 6 8 6 4 -1 2 7 8 9 10 7 -1 -1 -8 -7 -6 -5 -6 -7 -7 -7 -6 -8 -7 -4 -3 4 -3 -4 -4 3 3 -5 5 8 10 6
-4 -2 -1 -2 1 0 0 0 -2 2 5 7 7 5 1 1 4 8 9 11 5 0 -5 -5 -7 -5 -5 -7 -7 -7 -6 -6 -8 -8 -3 4 3 -1 -3 -6 -5 -4 -2 -3 2 6 9
-2 -2 -0 -1 1 0 0 -0 -2 1 4 7 7 5 1 1 3 8 9 8 3 -2 -4 -6 -5 -6 -4 -6 -5 -5 -6 -8 -8 -9 -0 4 8 3 -2 -4 -4 -3 -4 2 -1 4 4
-3 -1 -1 -1 -0 1 0 -1 -3 0 3 6 6 4 2 3 5 7 9 6 4 -2 -5 -3 -5 -6 -5 -5 -5 -5 -6 -7 -6 -4 -4 1 5 2 -1 -2 -6 -1 -1 -3 -5 2 6
-2 -2 -2 -2 -2 0 0 -1 -1 -1 1 5 5 3 2 3 7 3 7 3 0 -1 -4 -3 -4 -6 -6 -4 -4 -6 -5 -4 -5 -5 -2 -4 -2 3 -1 -3 -4 -3 -1 -2 8 2 3
-2 -2 -3 -4 -3 -2 0 -2 -2 -1 1 5 4 3 6 3 5 5 5 3 -0 -1 -2 -2 -3 -4 -6 -5 -3 -5 -5 1 -0 -2 -1 -0 0 3 -1 -1 -2 -2 -4 -5 -2 2 4
-3 -3 -5 -7 -3 -1 0 -1 -1 -2 1 5 3 7 9 7 0 3 6 3 1 -1 -4 -3 -3 -5 -4 -4 -4 -3 -4 1 1 0 -1 1 -1 -2 3 -1 -1 1 -2 -5 -3 8 3
-4 -5 -5 -3 -4 -2 0 -1 -1 -2 0 5 4 4 6 8 7 4 5 2 1 0 -3 -3 -3 -5 -1 -1 -3 -1 -3 2 1 1 -1 0 -1 -3 -4 -3 -2 -1 -2 -4 -4 -2 2
-5 -5 -3 -2 -2 -2 -0 -1 1 -0 1 4 4 3 4 3 4 4 5 4 0 -2 -2 0 -2 -3 -1 -1 -1 -0 -1 2 1 2 1 0 3 2 3 0 -1 -0 -3 -3 -3 -5 -5
-3 -3 -1 -2 -1 -0 -0 0 1 2 2 3 4 4 4 4 5 5 6 4 2 -1 -2 -2 -2 -1 -0 0 2 2 1 0 -1 3 3 3 5 6 6 1 -0 4 1 -1 -3 -5 -5
-1 -2 -1 -0 -0 -0 -2 -1 0 2 2 4 4 5 5 6 4 4 4 2 -0 -0 3 -1 -2 1 3 2 1 1 1 1 1 2 1 4 5 8 9 4 6 -5 -7 -8 -5 -7 -8
-1 -1 -0 -0 -0 -2 -2 -1 -3 -1 2 4 4 6 5 8 3 3 4 2 -1 -3 2 1 4 4 2 2 5 6 6 4 2 -0 -0 1 5 8 10 5 -1 -4 -8 -6 -6 -6 -7
-3 -2 -1 -2 -1 -1 -1 -1 -1 -1 2 3 5 7 8 7 6 1 1 0 2 7 6 4 4 3 2 6 9 7 8 3 2 2 -2 -2 2 8 7 9 8 1 -5 -6 -6 1 -4
-7 -4 -4 -5 -3 -1 -1 -0 -1 0 2 4 5 7 9 6 3 1 1 2 2 6 7 5 5 4 4 11 9 10 7 0 6 7 8 7 8 8 7 9 6 -3 -5 -4 2 4 -3
-7 -7 -6 -5 -3 -2 -1 -1 1 1 3 4 4 7 8 7 1 1 -2 -2 0 4 8 5 6 5 8 10 11 10 10 7 4 0 6 7 9 8 9 8 8 -5 -3 0 2 -2 -2
-6 -6 -4 -3 -2 -1 -1 -0 1 3 4 4 5 7 7 9 7 5 2 2 2 3 5 5 4 4 5 7 9 11 8 8 9 7 -1 5 4 7 6 6 -1 -5 -4 -4 -3 -2 -1

GFSGBSN_850_dewp_039.txt.gz
Dewpoint
-31 -24 -4 6 6 6 6 7 9 8 7 2 -3 -8 -9 -9 -8 -6 -5 -4 -4 -5 -5 -6 -7 -9 -10 -0 -8 -1 -4 -5 -12 -13 -11 -5 -3 -5 -8 -11 -11 -9 -10 0 3 4 4
-34 -34 -32 -20 -5 5 6 6 7 8 8 6 -1 -5 -9 -9 -8 -6 -4 -3 -4 -4 -5 -7 -8 -8 -8 4 -2 -1 -4 -6 -11 -13 -8 -4 -5 -8 -10 -9 -6 -11 -10 -1 3 4 4
-33 -33 -34 -33 -29 -6 8 6 5 6 8 8 3 -2 -7 -8 -7 -5 -3 -2 -5 -5 -6 -7 -8 -8 -8 -18 -2 -1 -0 -2 -7 -7 -4 -5 -7 -6 -5 -3 -4 -5 -6 -1 1 3 3
-32 -33 -33 -34 -34 -31 -3 7 6 6 6 8 6 -1 -5 -8 -8 -4 -1 -2 -5 -6 -7 -8 -8 -4 -7 -6 -4 -3 -2 -1 -3 -5 -5 -6 -4 -5 -5 -5 -3 -6 -6 -2 -5 3 3
-30 -31 -32 -33 -34 -34 -30 -0 6 5 6 7 8 2 -3 -8 -7 -4 -1 -3 -5 -7 -8 -8 -4 8 4 1 -3 -6 -4 -3 -2 -3 -4 -5 -4 -4 -4 -2 -1 -4 -4 -5 -4 1 1
-27 -29 -30 -32 -33 -32 -34 -27 2 5 4 7 8 4 -1 -7 -7 -2 -1 -4 -7 -6 -7 -5 -4 4 -4 -3 -7 -6 -5 -5 -4 -3 -3 -3 -3 -1 -2 -1 0 -1 -3 -4 -4 -0 0
-25 -20 -25 -29 -31 -31 -31 -33 -21 3 1 6 9 6 1 -5 -6 -1 -1 -4 6 7 3 -5 -1 -6 -3 -2 -4 -5 -6 -7 -4 -2 1 1 -0 2 0 -2 -2 -2 -1 -3 -5 -8 0
-15 -21 -20 -24 -29 -30 -28 -28 -29 -10 1 6 7 8 3 -4 -4 -1 0 -3 4 4 6 5 5 2 -3 -1 -3 -5 -7 -7 -4 3 3 5 4 2 -1 -2 -1 1 1 -3 -4 -9 -3
2 -7 -10 -17 -21 -27 -24 -22 -27 -16 -2 6 6 8 4 -4 -3 -1 -0 -5 -1 4 6 4 1 3 -6 -3 -3 -5 -7 -7 0 3 3 3 2 -0 -1 -1 -1 -1 -1 -3 -2 -8 -9
1 1 -4 -4 -5 -7 -20 -15 -19 -22 -0 4 6 8 4 -4 -2 6 1 -3 -6 4 8 3 2 -2 -5 -4 -4 -6 -6 -8 -0 1 2 2 2 2 1 0 -3 -2 -4 -2 -1 -3 -3
0 1 1 -2 -1 2 -0 -5 -11 -20 -2 4 7 8 5 -3 2 6 6 4 6 7 9 1 -2 -5 -6 -4 -5 -6 -7 -8 0 1 2 3 2 3 3 1 -2 -1 -2 -1 -0 -2 0
-1 0 1 0 -3 2 2 2 -2 -13 -4 3 7 8 5 -3 -1 4 7 8 7 10 10 0 -3 -4 -4 -5 -6 -7 -8 -8 -6 -2 -0 2 1 2 -0 -1 -2 -2 -2 -0 3 2 4
-2 -2 -1 1 0 -2 1 2 2 -7 -6 4 5 8 6 -1 -2 5 3 8 10 10 -2 -2 -3 -3 -3 -3 -4 -6 -5 -4 -3 -0 2 0 -1 0 1 -0 -1 -0 -0 5 7 8 8
-2 -4 -2 -1 1 -0 0 1 2 -1 -5 4 7 7 7 0 -1 8 5 9 10 3 2 -4 -3 -3 -2 -3 -3 -5 -4 -3 -4 -5 -0 0 4 1 -1 1 2 -1 2 6 8 10 8
-1 -2 -5 -4 -1 0 -1 0 1 1 -5 4 7 7 6 1 1 7 9 10 7 4 -3 -2 -5 -2 -2 -4 -4 -4 -5 -4 -6 -7 -3 4 5 3 1 1 -2 -1 1 1 7 7 7
-1 -4 -3 -3 -3 0 -1 -1 1 1 -3 3 6 6 6 2 -0 6 8 7 6 1 0 -1 -1 -3 -2 -4 -3 -4 -3 -6 -4 -7 0 5 4 3 3 1 -2 -2 -3 2 3 4 5
-1 -3 -6 -5 -4 -1 -1 -1 0 1 -1 3 5 6 5 5 1 6 8 6 5 2 0 1 -2 -3 -3 -2 -3 -4 -3 -5 -5 1 2 4 4 6 4 3 -0 -0 -0 -2 -0 4 5
-2 -3 -6 -7 -3 -2 0 -2 1 0 -1 3 5 6 4 2 6 5 6 5 4 2 2 3 -2 -1 -2 -2 -1 -3 -2 2 -6 -3 0 3 4 8 4 1 -3 -3 2 3 4 1 3
-2 -4 -7 -7 -4 -2 0 -0 2 0 -1 3 5 4 4 1 4 5 3 4 4 4 3 2 -1 -1 -2 -2 1 -1 3 2 1 0 0 1 2 4 1 1 0 -1 -2 -3 1 4 3
-2 -4 -7 -7 -3 -1 -1 1 1 0 -1 3 5 6 7 7 -2 3 3 3 5 3 4 1 -0 -0 -1 -1 -2 -1 4 2 1 1 -1 1 1 2 2 1 0 1 2 -2 -0 4 2
-3 -5 -9 -7 -1 -1 -1 -0 1 -0 -0 3 5 4 5 7 6 2 2 2 5 6 3 0 0 -0 -0 0 -1 -0 4 3 2 0 -0 1 1 -2 -2 -0 -1 -1 0 -0 -2 1 2
-5 -9 -10 -8 -2 -2 -3 -2 0 -0 -0 2 5 3 5 6 5 5 3 4 4 3 3 1 2 -0 -1 1 2 1 3 3 3 2 1 1 3 1 3 2 0 -0 -0 -1 -2 -1 -2
-5 -6 -9 -6 -3 -5 -7 -4 -0 -0 1 2 3 3 4 5 6 6 3 3 4 3 1 -1 -0 1 2 2 2 1 1 2 2 4 3 3 4 4 4 0 -0 0 -1 -1 -1 -2 -2
-6 -7 -6 -5 -5 -6 -6 -4 -1 0 1 2 2 4 5 5 6 5 2 1 4 3 4 -0 -2 2 2 1 1 1 1 3 5 5 3 5 5 4 4 2 -1 -1 -6 -6 -5 -4 -5
-5 -5 -6 -6 -5 -5 -4 -2 -0 0 1 2 3 4 7 4 4 3 1 3 3 3 3 3 3 1 1 2 6 5 4 -1 1 1 1 5 4 5 3 4 1 -2 -4 -4 -4 -2 -3
-5 -6 -3 -3 -2 -2 -2 -1 -0 -0 0 2 1 5 6 7 6 2 0 3 5 5 7 6 5 3 1 7 4 5 6 4 4 1 2 2 4 1 4 4 1 1 -5 -5 -5 2 -1
-4 -1 -2 -1 -1 -0 -1 -0 0 1 1 2 2 3 5 8 5 4 1 3 3 7 8 8 5 5 5 4 6 4 4 3 6 5 4 4 3 3 3 3 3 0 -4 -4 -1 2 -1
-1 -1 -0 -0 -0 -0 -0 -0 -0 -0 -0 1 1 3 5 7 6 4 2 2 4 5 7 7 8 6 6 6 5 5 4 3 4 5 5 4 5 3 5 5 5 -4 -3 -0 3 -1 -1
-4 -1 -1 -2 -1 -1 -0 -1 -2 -1 -2 -1 1 2 4 5 6 8 4 2 2 3 5 6 6 5 6 7 6 5 7 4 4 4 3 5 6 5 4 4 2 -4 -1 -0 -0 1 2

GFSGBSN_850_dewp_042.txt.gz
Dewpoint
-34 -35 -33 -22 -3 5 6 4 6 6 9 8 7 0 -5 -10 -11 -10 -9 -7 -4 -5 -5 -7 -8 -9 -11 -11 -14 -5 -2 -6 -7 -15 -14 -11 -4 -3 -4 -8 -10 -10 -10 -2 4 5 5
-33 -34 -35 -35 -33 -19 -2 2 5 6 6 8 8 6 -3 -7 -10 -10 -8 -6 -3 -5 -5 -7 -8 -9 -9 -2 -1 -1 -1 -6 -8 -14 -7 -5 -5 -4 -5 -7 -5 -5 -4 3 4 4 3
-31 -31 -33 -34 -35 -34 -30 -19 1 6 6 6 8 8 2 -5 -9 -10 -8 -5 -3 -5 -6 -7 -8 -9 -9 -19 -3 -5 -1 -2 -7 -8 -8 -5 -5 -3 -5 -4 -5 -4 1 3 4 4 1
-30 -31 -31 -32 -34 -34 -34 -32 -13 6 6 4 6 8 6 -2 -7 -9 -7 -4 -3 -5 -6 -7 -7 -6 -10 -12 -6 -3 -2 -2 -1 -3 -6 -5 -5 -4 -5 -5 -4 -4 -1 3 3 2 -0
-28 -30 -31 -30 -32 -33 -34 -34 -30 -2 5 5 6 7 7 1 -5 -8 -7 -3 -3 -5 -6 -7 -7 3 -7 -5 -5 -2 -3 -3 -3 -1 -3 -4 -3 -3 -4 -2 -1 -3 -4 -2 2 1 0
-20 -24 -28 -30 -30 -31 -32 -33 -33 -18 3 5 -0 6 8 4 -3 -8 -6 -3 -5 -3 -2 -5 -4 -0 -7 -4 -3 -6 -5 -5 -3 -2 -3 -3 -3 -2 -1 -1 2 -1 -2 -4 -3 1 1
2 -5 -17 -23 -26 -29 -30 -31 -32 -32 -12 3 2 5 8 6 -1 -8 -6 -2 2 7 5 -0 -5 -10 -4 -3 -3 -5 -5 -5 -4 -2 -1 1 1 2 1 -1 -2 -1 -1 0 -2 -2 1
2 2 0 -12 -18 -20 -27 -29 -31 -31 -29 -7 1 5 6 8 0 -7 -3 -1 4 2 4 2 2 5 -2 1 -1 -4 -5 -6 -3 1 3 3 3 1 1 -0 -0 -0 1 1 -3 -4 0
1 2 2 1 -5 -4 -15 -23 -26 -29 -29 -13 0 6 6 8 1 -7 -1 1 1 -1 5 3 0 -1 -5 -3 -2 -3 -5 -5 1 2 2 2 1 1 1 -0 -1 -0 1 0 -1 -5 -8
1 1 1 2 2 2 2 -6 -17 -23 -25 -19 -3 6 6 8 -0 -6 6 8 -4 -1 7 5 3 -0 -4 -7 -4 -4 -6 -4 -0 2 2 1 0 2 2 2 0 -0 -1 -1 -1 -0 -1
1 0 1 1 1 2 3 2 1 -10 -19 -20 -2 7 6 7 -2 3 6 7 4 6 6 0 3 -2 -8 -4 -5 -6 -7 -6 -0 1 1 1 2 1 2 1 -0 -0 -2 -1 -1 0 -0
1 1 -0 -0 1 1 2 2 3 -0 -12 -14 -2 5 7 7 3 -0 7 8 6 8 8 4 -1 -3 -3 -4 -4 -6 -7 -7 -5 1 -0 -0 1 1 0 -1 -1 -2 -0 1 3 2 3
-0 1 1 -1 -1 1 1 1 2 2 -5 -7 1 5 7 6 5 -6 3 7 8 9 2 1 -1 -3 -3 -2 -3 -4 -5 -5 -4 1 2 0 1 0 0 1 -1 -1 0 4 5 6 4
-4 -1 1 0 -2 -1 0 0 1 1 2 -6 1 5 7 5 4 5 5 8 9 5 4 -0 -2 -3 -2 -3 -3 -3 -5 -4 -5 -3 1 2 3 0 -0 1 3 1 1 4 4 7 5
-6 -4 -1 0 -1 -2 -1 1 0 1 2 -1 0 5 7 7 5 2 8 9 5 6 -1 -1 -3 -0 -1 -2 -3 -3 -3 -3 -5 -5 -2 2 4 2 2 1 -0 0 2 0 6 6 6
-5 -3 1 1 0 -3 -2 1 0 0 1 0 1 4 5 6 6 2 8 6 6 3 2 1 0 -1 0 -2 -2 -3 -3 -5 -4 -5 -4 2 4 2 2 0 -1 -1 -3 1 3 5 6
-6 -4 0 0 -0 -2 -5 -2 1 -1 1 0 2 4 4 6 6 4 7 5 4 2 3 3 2 -1 -2 -2 -3 -2 -3 -5 -5 -3 -0 3 1 1 2 1 0 0 -1 -1 1 3 4
-3 -4 -1 -0 -0 -1 -4 -5 0 -1 0 0 3 4 4 5 5 4 6 4 3 3 3 4 3 1 -1 -1 -2 -2 -2 -4 -1 1 1 2 4 4 3 0 1 -1 0 1 3 0 3
-1 -3 -3 -1 -1 -1 -5 -5 0 0 -0 0 3 3 4 5 5 3 3 4 3 2 4 4 3 2 -2 -2 0 0 0 1 0 -1 1 2 4 5 2 0 1 1 -1 0 3 3 3
-1 -3 -2 -1 -1 -2 -7 -7 -1 1 0 0 2 4 5 6 3 0 3 4 5 2 3 4 5 3 2 -1 -0 1 4 2 2 1 0 -1 2 2 3 0 0 2 1 2 0 3 2
-1 -4 -1 -1 -1 -3 -8 -7 -2 0 1 0 3 2 3 5 5 1 1 2 4 4 3 3 3 4 4 1 -1 3 4 2 2 -1 0 -0 1 -1 -1 -1 -0 -0 -0 1 -1 -0 1
-2 -2 -1 -1 -2 -5 -8 -9 -4 0 1 1 2 4 3 4 3 3 1 2 2 1 1 1 4 4 2 0 -1 1 3 3 1 1 -0 1 0 -0 1 1 -1 -0 -1 -1 -1 -1 -0
-2 -3 -2 -2 -4 -6 -5 -5 -3 0 2 1 2 2 3 2 4 5 4 2 0 -1 1 -0 2 3 3 1 -1 -2 -1 -0 1 2 3 2 4 3 3 -0 -1 2 -1 -2 -2 -1 -2
-2 -2 -3 -4 -5 -8 -5 -1 -1 -0 1 1 2 3 5 5 5 5 3 1 1 0 -0 2 0 3 1 1 2 2 3 4 4 4 3 4 4 2 3 0 2 1 -3 -3 -2 -3 -4
-2 -3 -3 -4 -6 -10 -3 -1 -1 -0 0 1 2 3 5 4 4 5 4 2 -0 -0 3 -0 2 1 1 2 5 4 4 2 2 2 2 4 3 4 2 3 1 -1 -5 -5 -2 -1 -3
-2 -4 -4 -6 -10 -10 -4 -4 -2 -1 0 0 2 3 4 6 4 3 5 2 2 4 3 4 3 3 3 6 4 4 5 4 4 1 2 3 3 3 4 2 1 -0 -4 -5 -3 2 -1
-5 -5 -5 -7 -9 -8 -5 -6 -4 -4 0 0 1 2 3 5 4 4 4 3 1 3 6 7 5 5 5 3 5 4 5 3 4 3 1 3 3 2 1 1 1 -1 -4 -4 -2 -1 -1
-5 -5 -4 -4 -6 -7 -7 -7 -5 -4 -1 0 1 2 2 3 4 6 2 1 1 3 6 6 6 6 6 5 5 4 2 3 4 3 3 2 4 2 4 2 2 -1 -3 -1 -1 -0 -0
-4 -4 -5 -5 -5 -4 -5 -5 -4 -3 -2 0 1 2 2 3 4 5 5 5 2 2 4 6 4 5 6 6 5 4 4 2 3 5 3 3 2 3 3 3 1 -2 -1 -1 -1 1 2

GFSGBSN_850_dewp_045.txt.gz
Dewpoint
-30 -31 -32 -32 -22 -1 5 6 5 3 5 5 8 8 7 -1 -6 -10 -10 -8 -7 -5 -5 -6 -8 -10 -10 -11 -16 -7 -2 -5 -7 -13 -14 -11 -6 -4 -3 -6 -9 -10 -10 1 -3 4 5
-22 -29 -30 -32 -33 -30 -21 -5 4 2 1 5 3 8 8 6 -4 -8 -10 -8 -6 -4 -5 -6 -8 -9 -9 -5 -2 -1 -1 -6 -9 -13 -12 -7 -5 -4 -3 -6 -5 -5 3 5 5 4 4
-28 -22 -26 -29 -30 -33 -33 -29 -18 -11 -4 5 5 4 7 8 1 -5 -9 -9 -6 -3 -4 -6 -7 -8 -9 -17 -1 -1 -1 -1 -7 -9 -8 -5 -5 -4 -4 -5 -4 -3 3 4 4 3 0
-24 -26 -27 -25 -27 -30 -32 -33 -29 -29 -14 5 5 3 4 7 6 -3 -7 -8 -6 -3 -4 -6 -7 -8 -11 -21 -9 -3 -2 -2 -1 -4 -5 -5 -4 -4 -3 -4 -3 -5 1 6 3 3 0
-4 -20 -18 -27 -27 -25 -29 -31 -32 -30 -21 -3 5 3 4 5 7 0 -6 -8 -6 -3 -4 -6 -7 -6 -10 -5 -9 -4 -2 -2 -3 -3 -2 -4 -3 -3 -3 -2 -1 -3 1 0 4 2 1
1 0 -13 -21 -24 -24 -26 -27 -30 -32 -28 -8 4 4 1 3 7 4 -5 -7 -4 -4 1 2 -3 -4 -14 -3 -3 -5 -4 -3 -4 -2 -2 -2 -2 -1 -1 -1 2 -0 -2 -2 3 1 2
2 2 2 -1 -20 -21 -21 -23 -26 -31 -32 -23 1 5 2 4 8 6 -5 -5 -2 6 5 1 -6 -13 -13 -3 -3 -5 -5 -5 -4 -2 -1 2 1 1 0 -0 -1 -1 -1 -0 -2 -4 2
1 2 2 2 2 -7 -10 -15 -20 -25 -30 -31 -6 4 3 6 7 6 -5 -4 1 3 2 0 -0 2 2 2 3 -3 -4 -5 -2 0 2 1 2 1 0 1 -1 -0 -0 -1 -2 -3 2
2 2 1 2 2 2 0 -1 -7 -11 -24 -30 -23 -1 3 6 7 6 -5 5 6 2 1 1 0 -1 -5 -2 1 -2 -4 -5 -0 2 2 2 -0 0 1 0 -0 -1 0 0 -0 -3 -2
-1 2 2 1 1 2 2 3 3 0 -7 -19 -23 -5 4 7 7 6 0 6 -1 -2 5 4 5 1 -1 -2 -3 -4 -4 -4 -1 0 2 1 -1 1 1 1 0 1 -2 -1 0 -0 0
-4 -1 2 1 1 1 1 2 2 3 1 -7 -14 -5 3 7 4 -1 6 6 2 6 -2 -5 3 -2 -6 -5 -4 -4 -4 -4 -0 1 1 -0 2 2 1 0 -0 0 -2 -1 -1 -0 -0
-4 -4 -1 2 1 0 1 1 1 2 3 -1 -9 1 4 7 6 0 6 5 6 6 3 2 2 1 -4 -5 -4 -6 -4 -6 -3 1 -0 -2 1 -0 -1 -1 -1 -2 -1 1 2 1 3
-2 -3 -4 0 2 1 -0 1 1 1 2 2 -4 1 5 7 6 5 -1 6 9 7 -1 2 1 -2 -3 -3 -3 -4 -5 -4 -1 1 2 -0 0 0 1 0 -1 -1 1 4 4 5 4
-1 -2 -3 -5 -2 2 0 -1 0 1 2 2 0 1 5 6 6 6 4 8 8 4 4 2 -1 -2 -3 -3 -3 -3 -4 -3 -5 -2 2 2 2 1 -0 0 1 1 0 4 3 5 3
1 -1 -2 -4 -4 1 1 -1 -0 0 1 2 1 -0 4 6 7 4 6 9 5 4 2 -3 -2 -1 -1 -3 -3 -3 -3 -4 -5 -4 -2 2 2 2 1 1 -1 1 2 -0 5 5 5
1 -1 -1 -3 -4 -2 1 0 -2 -0 -0 1 1 0 3 4 7 7 6 6 5 3 3 3 0 -1 0 -1 -2 -2 -2 -4 -4 -5 -5 -0 1 1 1 0 -1 -0 -2 1 3 3 5
1 1 -1 -1 -5 -4 0 1 -2 1 -1 0 1 2 1 3 6 5 5 5 4 2 2 5 4 2 -0 -1 -2 -2 -2 -4 -4 -4 -4 1 -1 0 1 2 1 0 -0 -0 1 3 4
2 1 1 -1 -3 -4 -3 0 -2 -2 -0 1 1 2 2 2 5 4 3 3 2 2 2 4 4 5 3 -1 -1 -2 -2 -4 -6 -1 -1 1 1 2 1 -0 -0 -1 0 -0 3 1 3
1 1 1 -0 -1 -2 -3 0 -1 -2 -0 2 0 2 3 2 6 4 2 1 3 2 3 3 4 3 2 -1 -1 -1 -2 -1 1 -1 1 2 2 3 1 -0 1 1 1 2 2 2 3
1 1 1 0 -2 -3 -0 0 -3 -4 0 1 0 3 4 4 2 2 3 3 4 2 2 2 4 4 3 1 -1 1 2 1 1 -0 -2 -0 2 1 2 0 1 2 1 0 2 4 2
1 1 1 0 -2 -1 -0 -0 -3 -6 -0 1 1 0 2 5 4 3 2 2 4 4 2 1 2 5 5 4 -1 2 3 3 1 0 1 0 1 0 -1 -2 -1 -0 0 2 0 -0 2
1 1 1 0 -2 -1 -0 -1 -2 -5 -3 1 -0 2 2 3 2 3 3 2 3 3 3 3 2 3 1 4 2 2 3 2 2 1 0 0 1 -1 1 -0 -1 0 -1 -0 -0 -1 -0
1 1 1 0 -2 -2 -1 -1 -4 -6 -2 1 0 0 2 2 3 3 2 1 1 1 2 1 2 4 4 3 2 0 -0 0 0 2 1 1 3 1 1 -0 -1 2 -0 -1 -1 -1 -1
1 1 0 -0 -2 -1 -1 -1 -6 -8 -4 0 -0 1 3 2 3 2 1 1 1 1 1 1 -1 0 2 1 2 2 3 3 3 3 1 3 2 1 2 1 2 -1 -2 -3 -2 -3 -4
1 0 -0 -2 -3 -1 -2 -3 -6 -8 -4 -0 1 2 4 3 2 3 2 1 0 -0 0 -1 -1 -5 -3 1 4 4 3 3 1 3 4 3 2 3 3 3 1 -1 -3 -2 -3 -2 -3
0 -0 -1 -2 -1 -2 -2 -6 -8 -8 -4 -2 1 1 3 4 3 2 3 2 2 2 1 0 -0 -3 1 5 3 5 6 5 4 2 2 1 2 3 2 2 3 1 -3 -5 -3 1 -2
-0 -1 -1 -1 -3 -4 -5 -7 -6 -4 -3 -1 0 2 3 3 3 3 4 3 1 1 2 2 2 5 4 4 4 4 4 3 4 4 2 3 2 4 1 1 2 -2 -3 -4 -2 -2 -2
-1 -1 -2 -3 -4 -8 -9 -4 -2 -3 -2 -1 -0 2 2 2 3 4 3 3 3 1 3 5 5 6 4 5 5 4 3 4 3 2 2 4 4 2 1 -0 2 -3 -3 -3 -2 -1 -1
-1 -2 -2 -3 -5 -7 -10 -5 -1 -1 -1 -1 -0 1 1 2 3 3 4 4 4 3 1 5 4 5 5 5 5 4 4 1 3 4 2 2 3 4 2 2 -1 0 -2 -2 -2 -2 -0

GFSGBSN_850_dewp_048.txt.gz
Dewpoint
-19 -22 -27 -29 -29 -27 -15 3 7 7 7 5 5 6 8 8 7 0 -7 -10 -10 -8 -7 -5 -6 -8 -9 -10 -17 -6 -3 -6 -6 -10 -14 -11 -7 -4 -4 -5 -7 -9 -10 -1 1 4 5
-11 -14 -19 -22 -25 -30 -30 -25 -6 4 7 6 5 4 3 8 8 6 -3 -7 -9 -8 -7 -4 -6 -8 -7 -6 -9 -3 -2 -6 -8 -11 -12 -8 -4 -4 -3 -4 -5 -0 4 4 5 5 4
-10 -15 -15 -14 -20 -26 -28 -30 -31 -24 -7 5 4 3 5 4 7 7 3 -5 -9 -8 -6 -4 -5 -7 -7 -13 -6 -1 -2 -2 -6 -10 -8 -7 -5 -4 -4 -4 -4 -3 4 4 4 3 3
2 0 -7 -19 -25 -20 -22 -28 -29 -31 -29 -16 -6 0 7 4 5 7 7 -2 -7 -9 -6 -3 -5 -6 -9 -17 -5 -2 -2 -2 -2 -5 -6 -6 -5 -4 -3 -4 -3 -2 1 5 4 3 1
2 3 3 -1 -8 -19 -26 -23 -27 -29 -31 -27 -25 3 7 5 4 5 7 2 -7 -8 -6 -4 -3 -5 -9 -12 -17 -7 -4 -2 -3 -3 -3 -3 -3 -3 -3 -2 -1 -3 -0 1 4 2 1
3 2 2 3 2 1 -7 -24 -27 -27 -29 -30 -27 -5 5 6 4 4 7 3 -8 -8 -4 1 2 -0 -10 -5 -2 -5 -3 -3 -2 -3 -3 -1 -2 -1 -0 -1 1 0 -1 -2 4 1 2
2 3 2 2 2 3 2 2 -9 -23 -27 -30 -30 -9 3 6 4 6 8 -2 -5 2 5 3 -3 -7 -12 -6 -2 -6 -5 -4 -3 -2 -1 1 1 1 0 -1 -2 -2 -1 -1 -2 -3 2
-1 1 2 2 2 2 2 2 3 1 -16 -26 -30 -23 -1 4 4 8 8 -2 0 3 4 0 -0 1 2 2 2 -3 -3 -4 -2 -1 2 1 2 -0 -1 1 1 -1 -0 -1 -2 -3 -0
-3 -2 -0 1 2 1 2 2 2 3 2 -20 -24 -27 -6 4 6 7 7 -2 4 6 4 -1 -1 -0 -2 -1 -0 -3 -4 -4 -1 1 2 1 -1 0 1 0 -0 -1 -0 -1 -1 -2 -1
-0 -3 -4 -1 1 2 1 2 2 2 3 0 -15 -15 -7 6 6 6 6 4 4 4 3 2 4 2 -1 -2 -1 -4 -3 -4 -0 -0 2 1 -1 1 1 1 -1 1 -2 -1 -1 -0 1
-0 -1 -2 -4 -2 0 2 1 1 2 2 3 -1 -6 -2 5 5 3 4 5 2 4 -2 -5 4 1 -1 -3 -4 -3 -4 -3 -1 1 -0 -0 1 2 1 0 -1 -0 -2 -1 -1 0 -0
-1 -0 -1 -2 -4 -2 1 1 1 1 2 2 2 -4 2 4 6 3 6 2 5 5 1 -4 2 1 -1 -4 -4 -4 -4 -4 -2 1 -0 -2 0 -0 -1 -1 -1 -2 -1 -0 2 1 3
-2 -1 0 -1 -2 -4 -2 2 1 1 1 2 2 -0 -0 4 5 5 6 4 9 6 -3 0 3 -1 -3 -3 -3 -5 -4 -2 -0 1 1 -0 0 0 1 1 -1 -1 0 3 3 5 4
0 -0 -0 0 -2 -3 -4 1 1 0 1 1 2 2 -2 4 5 6 6 7 8 4 2 1 -1 -1 -3 -3 -4 -3 -4 -3 -5 -2 1 2 1 0 -0 -0 0 0 0 4 3 5 2
-1 0 0 1 1 -2 -5 -2 2 -0 0 0 1 2 -0 3 5 6 5 8 6 4 2 -0 -2 -1 -2 -3 -3 -3 -3 -3 -4 -2 -1 2 1 0 1 0 -1 1 2 -0 4 4 5
-1 -1 0 1 1 -1 -3 -5 0 1 -1 -0 1 1 0 0 5 6 5 5 4 1 3 4 -0 -1 0 -1 -2 -2 -2 -4 -4 -4 -4 -1 -0 1 1 0 -0 -1 -1 1 2 4 4
1 0 0 1 1 0 -2 -3 -5 1 -0 -1 2 1 -1 1 4 5 6 4 3 2 2 4 5 5 -0 -1 -2 -1 -1 -4 -4 -4 -4 -0 -3 -2 1 1 1 1 1 0 1 2 3
1 1 1 1 1 1 -1 -2 -4 -1 0 0 1 1 -2 -1 4 4 4 2 1 3 2 2 4 5 4 -0 -1 -1 -1 -3 -5 -3 -3 -0 -0 -0 -0 -1 -1 -1 0 0 3 1 3
1 1 1 1 1 1 -1 -3 -1 1 -1 0 1 -0 2 -0 3 3 3 2 2 3 2 3 4 4 3 0 -1 -1 -1 -4 -4 -3 -0 1 -0 0 -1 -1 0 1 1 1 1 1 3
-2 1 1 1 2 1 -0 -2 -3 0 -0 -0 1 0 3 3 -1 1 2 3 2 1 2 2 3 4 4 2 0 -1 -1 -0 1 -2 -2 -2 1 -1 0 -1 -0 2 1 2 2 4 3
-2 1 1 1 2 1 0 -1 -2 -1 0 0 1 -1 2 3 2 1 1 2 3 2 2 2 3 4 4 3 1 1 2 3 1 1 1 -0 1 0 -1 -2 -0 0 1 1 1 1 2
-2 -1 1 1 1 1 1 -0 -3 -2 0 0 1 1 1 1 -0 2 2 2 2 1 3 2 3 3 4 5 3 1 3 2 2 1 1 -0 1 -2 1 -0 -0 1 -0 1 0 -1 -0
-1 -1 1 1 1 1 1 -1 -2 -1 -0 0 0 -1 2 1 2 1 1 1 1 1 1 2 1 2 3 2 0 0 0 1 1 1 2 1 2 1 1 -0 -0 2 0 -0 -1 -1 -1
-0 -1 0 1 1 1 0 -2 -1 -1 -1 0 0 -1 1 2 2 2 -0 1 1 1 1 1 1 2 0 -1 1 2 2 2 2 3 1 2 1 1 2 1 2 -1 -2 -2 -1 -2 -3
-1 -0 -0 1 1 0 -0 -1 0 -0 -1 -0 0 0 1 1 2 2 1 0 0 -0 1 1 0 0 -0 -1 4 4 4 3 2 3 3 2 2 3 3 3 0 -1 -2 -2 -2 -3 -3
0 -0 1 1 0 0 0 0 -0 -2 -3 -2 -0 1 1 3 2 1 2 0 1 1 1 1 -0 -1 -1 4 3 5 6 5 4 2 1 1 1 2 1 2 2 -0 -2 -4 -5 -1 -2
-1 1 1 1 0 -0 -0 -0 -0 -3 -1 -1 -1 1 1 3 3 1 2 1 0 1 1 1 0 2 1 1 3 5 5 4 4 5 4 3 2 2 0 1 2 -0 -4 -5 -1 -1 -2
1 1 0 -0 -0 -0 -1 -0 -1 -4 -3 -3 -2 -1 1 1 3 4 3 1 1 1 2 1 2 3 4 4 5 5 2 4 4 3 4 5 4 2 1 1 5 -3 -3 -2 -2 -4 -3
0 0 -0 -0 -0 -1 -1 -1 -1 -1 -4 -4 -2 -2 0 2 3 4 4 4 2 1 0 2 2 4 3 5 3 2 2 0 3 5 1 4 3 4 3 3 -0 -2 -3 -4 -4 -3 -2

GFSGBSN_850_dewp_051.txt.gz
Dewpoint
-11 -10 -22 -20 -21 -24 -28 -27 -22 -8 3 7 6 6 6 5 5 8 8 4 -4 -8 -9 -7 -6 -7 -9 -10 -14 -12 -2 -6 -6 -10 -14 -13 -9 -5 -3 -4 -6 -7 -8 -3 -2 1 5
-1 -10 -7 -19 -19 -21 -22 -27 -29 -24 -13 -0 5 6 4 4 6 5 8 7 1 -5 -9 -7 -6 -5 -7 -8 -14 -6 -3 -7 -8 -11 -14 -7 -4 -4 -4 -3 -5 -4 4 4 5 5 5
2 1 -4 -0 -7 -16 -17 -20 -26 -28 -29 -27 -17 1 4 -1 3 6 5 7 6 -2 -7 -8 -6 -4 -7 -13 -15 -3 -2 -3 -5 -10 -11 -7 -5 -4 -4 -3 -4 -3 3 4 4 4 3
3 3 3 2 2 -1 -5 -11 -13 -25 -27 -30 -29 -20 -11 -6 3 4 4 5 7 2 -7 -8 -5 -3 -7 -15 -16 -2 -2 -3 -2 -7 -8 -6 -5 -4 -4 -3 -3 -1 1 4 3 3 1
2 3 3 2 3 2 1 -3 -6 -11 -24 -27 -30 -28 -25 -5 5 5 3 4 6 4 -7 -7 -3 -4 -7 -13 -16 -4 -2 -4 -2 -2 -3 -4 -3 -3 -2 -1 -1 -2 -0 2 3 2 1
0 -0 2 3 2 2 2 2 -2 -4 -9 -23 -28 -29 -27 -5 4 5 3 2 5 -0 -5 -0 2 -0 -6 -9 -4 -10 -6 -4 -2 -3 -3 -2 -2 -1 -0 -1 0 0 -1 -2 1 2 2
-0 -0 -1 2 3 3 2 2 2 -1 -5 -14 -22 -27 -29 -11 4 6 4 7 -1 -1 4 -0 -1 -3 -12 -7 -2 -5 -3 -2 -2 -2 -0 1 1 1 1 -0 -1 -1 -0 -1 -2 -0 -1
0 -0 -1 -2 1 2 3 2 3 2 0 -4 -17 -14 -21 -12 2 6 6 7 1 3 5 -2 -1 1 -1 -1 2 -1 -3 -3 -2 -1 1 2 3 0 -1 0 1 0 0 0 -2 -2 -0
-2 -1 -1 -1 -4 -1 1 3 2 2 2 2 -3 -16 -18 -7 4 5 4 5 5 4 6 3 -3 -2 -3 -2 -0 -1 -2 -3 -2 1 2 2 -0 0 1 1 1 -0 0 -0 -1 -1 -1
-2 -1 -1 -1 -1 -3 -2 1 2 2 2 2 2 -2 -10 -3 1 2 2 5 3 4 4 0 2 1 -1 -2 0 -3 -3 -4 -0 -0 2 1 -0 1 2 1 -0 1 -1 -1 -1 -0 0
-1 -5 -2 -0 -1 -1 -3 -1 1 2 2 2 2 2 -1 -1 5 4 4 4 4 5 3 -4 5 2 1 -1 -4 -1 -4 -3 0 1 1 1 1 2 2 1 -0 1 -1 -0 -0 1 1
-1 -0 -2 -3 -1 -1 -1 -5 -1 2 1 2 1 3 2 1 3 3 5 5 5 7 5 -5 3 3 4 -0 -4 -3 -3 -4 -2 1 0 -1 -0 -0 0 -1 -0 -1 0 0 1 1 4
-1 -2 -1 -0 -3 -1 -0 -2 -5 -1 2 1 2 2 2 1 3 -0 5 6 8 8 -1 -2 4 1 0 -2 -3 -3 -2 1 1 3 3 0 0 0 -0 1 -1 -1 0 3 4 5 5
-0 -1 -2 -1 0 -0 -1 -0 -3 -4 0 0 1 2 2 1 4 2 5 6 8 4 2 -0 -1 -0 -1 -3 -3 -3 -2 -1 -3 -2 0 0 0 0 0 0 1 1 1 5 4 4 2
1 1 0 -1 -0 0 1 0 -1 -4 -4 1 0 1 2 1 3 5 5 7 4 4 2 1 -2 0 -1 -3 -2 -2 -1 -1 -2 -1 -0 3 1 -1 0 0 -1 1 2 0 4 4 6
-1 0 1 1 -0 -0 1 1 -0 -3 -3 1 0 1 1 1 3 5 5 5 5 1 3 4 2 -0 1 -1 -1 -1 -1 -3 -3 -2 -2 1 1 1 1 1 0 0 -0 3 3 5 5
-4 -3 -1 1 1 -0 -0 1 1 -2 -3 1 0 1 0 1 2 4 5 3 3 1 2 3 6 6 0 -0 -1 -0 -1 -4 -4 -3 -4 -0 -1 -1 1 2 2 2 2 1 1 2 3
-3 -3 -4 -4 1 1 0 1 1 -2 -4 1 1 0 -0 1 3 2 3 2 0 1 2 3 4 5 5 0 0 0 -0 -2 -5 -3 -1 0 2 3 1 -1 -1 0 2 2 5 3 4
-2 -3 -3 -3 -2 1 1 1 1 -1 -3 1 0 1 -1 -1 2 2 1 1 1 2 2 4 4 4 4 3 -0 -0 -0 -3 -4 -2 1 1 1 1 -1 -1 1 2 1 1 1 2 4
-2 -1 -2 -4 -3 1 1 1 1 -1 -3 0 1 1 2 1 -1 -1 2 2 3 1 1 2 4 4 4 3 1 -1 0 -1 -3 -3 -3 -2 1 1 1 -1 1 3 2 1 2 5 4
-2 -0 -1 -2 -3 0 1 1 1 -1 -2 -0 1 1 1 2 1 -1 -0 0 2 2 0 2 3 3 4 3 3 1 1 2 1 1 0 1 2 1 -1 -3 -0 1 1 2 2 2 4
-1 0 -0 -2 -3 1 1 1 1 -1 -1 -0 0 0 -2 1 -1 -0 0 1 2 1 0 2 3 3 3 4 4 3 3 3 3 2 2 1 2 1 1 -0 -0 1 0 1 1 0 1
-0 -0 0 -1 -2 -1 1 1 0 -2 -0 0 0 -2 -3 1 1 -0 0 0 1 1 -0 -0 1 2 4 3 1 1 1 1 2 2 3 2 3 3 3 0 0 4 2 1 1 0 1
-1 -0 0 -2 -2 0 1 1 0 -2 -0 0 1 -1 -0 0 2 -0 -2 0 1 1 1 0 0 1 0 -1 -0 1 2 2 3 3 2 3 3 2 4 2 5 0 -2 -2 0 -1 -2
0 -0 -1 -1 -1 1 1 1 -0 -2 -2 1 -0 -1 -1 0 1 0 -1 -1 -0 0 1 -0 1 1 1 -1 4 3 4 4 3 3 3 1 2 4 6 4 2 -1 -2 -1 -0 -2 -2
0 -1 -1 -0 -0 2 1 0 0 -2 -2 0 -0 -1 -1 -0 1 0 0 -1 1 1 2 1 -0 -0 -0 3 2 4 7 5 5 4 1 1 1 5 3 5 6 2 -2 -4 -4 1 -3
1 0 0 -0 0 1 1 0 0 -2 -2 -0 0 -1 -0 2 0 0 2 1 -1 1 2 2 0 1 -0 2 5 5 5 5 7 6 6 4 3 4 3 6 4 -0 -3 -5 2 1 -3
-0 -1 -1 0 2 1 1 0 0 -1 -1 -0 0 -0 1 1 1 2 1 0 -0 -0 2 1 2 2 4 3 4 5 5 5 5 4 5 5 5 5 3 5 5 -2 -4 1 1 -5 -5
-0 1 0 1 1 1 0 -0 -1 -1 -0 -0 -1 -0 0 1 1 2 2 3 0 -1 -1 -0 -0 1 2 5 4 4 5 4 5 6 2 5 4 5 4 5 2 -3 -2 -5 -5 -5 -4

GFSGBSN_850_dewp_054.txt.gz
Dewpoint
-0 1 -5 -6 -12 -17 -16 -22 -27 -28 -27 -17 -3 4 5 6 5 4 2 1 6 6 -0 -7 -9 -8 -5 -3 -9 -9 -5 -4 -4 -8 -7 -9 -9 -6 -6 -6 -5 -5 -6 -1 -3 0 1
4 3 1 1 -3 -5 -12 -12 -12 -23 -29 -29 -19 -5 -1 5 6 4 4 2 4 7 5 -3 -8 -8 -2 -4 -13 -15 -3 -6 -7 -8 -8 -8 -4 -3 -4 -5 -4 -5 -0 3 2 3 4
2 3 3 3 2 1 -1 -10 -17 -16 -24 -28 -29 -28 -23 -8 2 -0 -1 4 1 4 6 2 -6 -7 -3 -4 -13 -12 -3 -6 -7 -6 -8 -6 -4 -3 -3 -4 -3 -4 1 3 3 4 3
1 2 2 3 3 3 2 1 -8 -19 -16 -24 -26 -29 -29 -25 -19 -11 -0 4 1 3 4 5 -4 -4 -0 -9 -15 -12 -2 -3 -3 -8 -7 -6 -5 -3 -2 -3 -4 -3 1 -2 3 3 1
1 1 1 2 2 3 3 3 2 -7 -8 -15 -24 -26 -28 -29 -26 -7 3 1 1 1 2 3 -4 -3 -2 -8 -12 -14 -1 -1 -2 -4 -7 -5 -3 -2 -2 -4 -5 -2 -2 -2 1 0 0
0 0 1 1 0 2 3 3 2 1 -1 -5 -14 -24 -25 -29 -26 -7 1 -1 -4 -2 1 -2 2 2 -4 -7 -5 -10 -3 -2 -1 -1 -2 -2 -2 -2 -3 -4 -5 -3 -3 -4 -0 -1 1
1 0 1 -0 -1 -1 1 2 3 2 2 -1 -5 -12 -21 -24 -28 -2 0 4 4 3 3 -0 1 -0 -8 -4 -2 -2 -5 -4 -1 -2 -2 -1 -1 -2 -5 -3 -3 -3 -3 -4 -3 -1 -1
-8 0 1 1 -0 -1 -3 0 2 2 2 2 1 -3 -8 -14 -24 -12 -0 5 5 4 2 2 -2 1 1 -3 1 -0 -3 -1 -1 -1 -1 1 -1 -2 -2 -1 0 -1 -2 -3 -3 -2 -1
-6 -14 -12 -2 1 -1 -1 -3 0 2 2 2 2 2 0 -7 -12 -12 0 5 6 5 5 2 2 0 -0 0 -1 -3 -2 -3 -2 -2 -1 -2 -2 -1 -1 -0 1 -0 -1 -3 -3 -3 -3
0 -0 -1 -6 -4 -0 -1 -1 -3 -2 3 2 2 2 2 -1 -3 -1 4 0 4 3 4 -3 -1 -0 0 -1 -0 -3 -2 -4 -2 -2 -3 -2 -3 -1 -0 -0 -1 -1 -2 -2 -2 -1 -1
-2 -2 -0 0 -1 -6 -1 -1 -1 -3 -0 2 1 2 2 1 5 5 5 4 4 5 -3 -5 2 2 2 -4 -4 -2 -3 -3 -3 -2 -1 -1 -0 0 1 -1 -1 -1 -1 -1 -1 -1 -0
-1 -1 -2 -2 -1 -1 -3 -2 -0 -1 -5 1 2 1 2 2 4 4 4 5 5 5 1 -6 2 3 3 0 -3 -3 -3 -2 -4 -3 -2 -4 -1 -1 -2 -1 -1 -1 -0 -0 0 -0 2
-0 -0 -1 -1 -2 -2 -0 -4 -3 -1 -3 -4 2 1 1 2 2 4 4 7 5 2 -6 -7 2 2 0 -1 -3 -3 -3 -1 -2 -0 -0 -2 -2 -2 -1 -1 -0 -1 0 3 4 3 3
-0 -0 0 0 -0 -1 -2 -1 -2 -1 -1 -5 -1 1 1 2 3 3 6 7 1 -9 -6 -3 -1 1 0 -4 -4 -2 -3 -1 -3 -4 -4 -0 -0 -2 -2 -2 -1 -0 -0 3 4 4 2
-0 -0 0 0 1 0 -0 -1 -1 -1 -1 -3 -4 1 0 2 2 4 6 6 -5 -5 -4 -3 -2 3 2 -3 -4 -2 -3 -3 -3 -3 -3 -1 -3 -3 -1 -1 -2 1 1 -1 3 5 5
0 1 0 0 0 1 1 -0 -0 0 -1 -2 -3 0 1 0 0 3 5 3 -4 -6 -2 0 -4 -0 3 -2 -1 -2 -2 -4 -4 -4 -7 -2 -2 -1 0 -0 -0 -0 -1 2 2 5 4
1 1 1 1 0 0 1 1 -0 0 1 -1 -2 1 1 -2 1 2 4 1 -4 -2 -1 2 1 0 0 -1 -4 -2 -2 -3 -4 -3 -5 -4 -3 2 1 2 -0 1 1 1 0 1 3
2 2 2 2 1 0 -0 1 1 0 1 0 0 1 1 -1 2 1 3 0 -5 -3 1 2 3 3 4 -0 -2 -4 -3 -4 -5 -4 -1 -3 -2 0 -1 -1 -1 -1 -0 0 3 3 3
-1 -1 -0 -0 -0 0 -3 1 1 1 1 0 0 1 1 1 2 1 1 -1 -3 -2 -0 2 3 3 4 4 1 -2 -2 -4 -4 -3 -3 -2 -1 1 -0 -0 -0 -1 -1 -1 -0 1 1
-2 -2 -2 -2 -2 -2 -3 -2 1 1 1 0 -0 2 2 2 -4 -2 -0 0 -1 -3 -3 1 1 2 3 3 2 1 -1 -1 -2 -4 -3 -2 -3 -1 0 -3 -4 0 -1 -2 0 3 0
-1 -1 -1 -2 -2 -2 -3 -2 -0 1 0 0 0 2 1 2 0 -3 -2 -3 -2 -1 -1 -1 2 2 3 4 2 2 1 1 0 -1 -3 -1 -1 -2 -4 -6 -6 -5 -5 -3 -1 -1 -0
-1 -1 -1 -0 -2 -2 -1 -3 -2 1 0 0 -0 -0 0 -1 -1 -2 -1 -0 -2 -2 -3 1 0 1 2 2 1 4 2 2 2 2 0 -1 -1 0 -0 -3 -3 -4 -4 -4 -3 -4 -1
-1 -1 -1 -1 -0 -2 -1 -2 -2 1 0 -0 -0 -1 -3 -2 -1 -1 -1 -2 -2 -2 -4 -5 -1 0 2 1 -0 0 1 1 0 2 3 2 0 1 1 -0 -1 4 1 -2 -2 -1 -1
-1 -2 -2 -0 0 -2 -1 -1 -2 0 0 -0 -2 -0 -1 -1 -0 -1 -3 -4 -4 -3 -1 -4 -4 0 -0 1 1 1 2 1 2 2 2 3 3 3 3 4 9 -2 -2 -3 -2 -2 -2
-2 -2 -2 1 -0 -2 0 -1 -0 0 -0 0 -1 -1 -2 2 -2 -2 -3 -4 -5 -4 -2 -3 -2 -3 -1 -2 -1 -1 2 3 1 2 4 3 3 5 9 4 -0 -1 -2 -1 0 -1 -3
-1 -2 -2 0 -0 -1 0 -1 1 0 -0 0 -1 -2 -1 -1 -2 -4 -1 -4 -3 -2 -0 -3 -2 2 0 3 3 2 -3 -2 2 4 2 2 3 6 4 5 9 -1 -3 -3 -3 1 -4
-0 -1 -2 -0 0 0 -1 -1 1 0 -0 0 0 -1 -1 -2 -5 -4 0 -1 -4 -3 1 -1 1 2 1 4 7 4 1 -0 2 4 7 5 5 7 6 7 3 -1 -3 -3 2 2 -3
-0 0 -0 -0 0 -1 -1 1 1 -0 0 0 1 -1 -1 -2 -2 -2 -1 -1 -3 -3 1 -1 1 2 3 5 4 4 6 3 3 1 5 5 6 8 6 10 8 -2 -3 -1 -1 -0 -2
0 -1 -0 -1 -1 -1 1 1 0 -0 0 0 0 -1 -0 0 2 1 2 2 2 -3 -3 -1 -3 -4 1 1 3 1 8 7 3 4 2 6 4 5 3 3 1 -1 -3 -3 -0 -2 -1

GFSGBSN_850_dewp_057.txt.gz
Dewpoint
4 4 3 2 1 -3 -7 -17 -22 -21 -24 -27 -27 -23 -10 -2 2 3 4 -1 -6 -1 2 6 4 -5 -9 -1 -4 -6 -3 -3 -5 -6 -5 -9 -8 -7 -7 -9 -8 -7 -9 -7 -5 -5 -3
1 3 4 4 3 2 -1 -3 -10 -19 -18 -24 -27 -28 -25 -13 -5 -4 -3 -7 -8 -5 -0 4 6 -0 2 -1 -6 -8 -13 -4 -3 -2 -6 -9 -11 -8 -6 -7 -7 -7 -7 -4 -2 -4 -2
2 2 1 3 4 4 3 2 0 -7 -17 -21 -22 -26 -28 -30 -25 -21 -19 -14 -12 -7 -0 -1 4 5 2 -2 -4 -4 -6 -2 -3 -5 -8 -9 -5 -4 -5 -6 -7 -6 -4 -2 0 -2 -1
-0 -0 1 2 2 3 4 3 3 2 -1 -11 -14 -19 -26 -27 -31 -29 -27 -20 -8 0 -1 -1 1 3 2 -3 -5 -3 -2 -2 -3 -6 -6 -7 -5 -3 -4 -6 -6 -6 -5 -1 7 4 -1
1 1 -0 -1 1 1 2 3 3 3 2 -1 -5 -13 -21 -24 -27 -32 -31 -16 -6 -3 -3 -3 0 4 -0 -2 -5 -6 -3 -2 -3 -4 -4 -5 -4 -4 -5 -5 -6 -6 -3 0 2 1 -1
2 2 1 0 0 -1 -0 1 2 3 3 2 2 -2 -13 -22 -25 -28 -31 -15 -6 -8 -2 1 4 3 -0 -5 -7 -9 -5 -1 -2 -2 -3 -3 -4 -3 -5 -7 -4 -6 -3 -4 2 3 -3
-1 -5 2 2 1 1 0 -2 -1 2 3 3 2 2 -1 -16 -20 -26 -26 2 4 6 5 -2 -2 -6 -6 -6 -2 -6 -6 -0 -3 -2 -2 -4 -3 -3 -6 -6 -5 -5 -5 -5 1 2 -1
-1 -3 -6 -4 -1 0 1 0 -1 -3 2 3 2 2 2 1 -10 -21 -14 1 0 5 -1 -3 -1 -1 -1 -1 -2 -6 -2 -2 -3 -1 -4 -2 -1 -5 -5 -4 -4 -5 -4 -5 -6 -5 -3
-0 -0 -1 -2 -7 -8 -1 0 -0 -2 -1 1 3 2 2 2 -1 -14 -0 1 4 5 2 -6 -5 -4 -3 -3 -1 -5 -2 -3 -3 -2 -3 -2 -4 -4 -3 -3 -2 -3 -3 -4 -4 -3 -4
-1 -1 -1 -1 -0 -0 -4 -11 -2 -1 -2 -0 2 2 2 2 -2 -1 2 2 3 5 2 -10 -1 -2 -3 -3 -2 -5 -4 -4 -4 -2 -3 -3 -5 -3 -3 -2 -3 -1 -5 -5 -3 -3 -2
-1 -1 -0 -0 -1 -2 0 -1 -5 -2 -1 -2 -2 2 2 1 3 3 2 4 6 7 -6 -9 -4 -1 -3 -3 -9 -5 -5 -5 -4 -3 -4 -3 -4 -2 -1 -2 -3 -3 -3 -3 -3 -3 -2
-0 -0 -0 -0 -0 -0 -2 -1 -1 -7 -2 -1 -4 0 2 1 2 4 6 6 7 3 -5 -8 -1 0 1 -2 -8 -7 -5 -5 -6 -4 -5 -5 -5 -4 -4 -3 -3 -4 -2 -2 -1 -1 1
0 0 -0 -0 -0 0 -0 -1 -2 -1 -5 -1 -2 -3 2 3 1 3 6 7 1 -3 -12 -10 -2 -0 -0 -0 -3 -5 -4 -4 -4 -1 -1 -4 -3 -4 -4 -2 -2 -2 -1 3 6 3 3
0 0 0 -1 -0 0 0 0 -1 -2 -1 -3 -1 -5 0 2 1 3 5 6 -1 -10 -10 -6 -6 -0 0 -2 -2 -3 -3 -3 -4 -4 -2 -1 -1 -3 -4 -3 -2 -0 -1 3 7 6 3
1 1 0 0 -0 -0 0 0 0 -0 -1 -5 -1 -1 -1 2 1 3 3 6 -1 -9 -15 -11 -5 1 0 -3 -3 -3 -3 -4 -4 -5 -2 -3 -3 -6 -6 -5 -6 -3 1 -2 2 3 4
1 1 1 1 0 -0 0 1 1 0 -1 -1 0 1 0 1 2 3 3 4 -2 -10 -14 -10 -8 -2 0 -2 -3 -3 -2 -5 -5 -6 -6 -5 -2 -5 -5 -5 -4 -2 -1 2 1 6 6
1 1 1 2 1 1 0 1 1 1 -0 0 0 1 -1 1 1 3 3 1 -0 -9 -13 -12 -7 -7 -3 -0 -4 -3 -3 -5 -5 -5 -6 -5 -3 -2 -1 -0 -1 -0 1 0 -0 1 6
1 1 0 1 1 1 1 1 1 1 1 1 1 2 -1 -0 2 2 2 -1 -2 -3 -7 -8 -4 -1 -8 -3 -2 -3 -3 -4 -5 -5 -3 -4 -3 1 0 -4 -5 -2 -1 -0 3 4 3
1 1 1 -2 2 2 2 1 1 1 1 1 1 1 0 1 2 3 -1 -2 -6 -3 -5 -6 -2 -2 -2 -0 1 -2 -3 -4 -5 -3 -3 -3 -2 1 -0 -1 -2 -2 -1 -1 -0 1 5
-3 -3 -2 -3 -1 2 2 1 1 1 2 1 1 1 2 2 0 -0 -2 -3 -5 -3 -3 -6 -3 -3 -2 1 0 0 -2 -2 -3 -3 -4 -2 -3 -1 2 -1 -3 -1 -2 -2 -1 4 2
-3 -3 -2 -3 -3 -2 0 2 1 1 1 1 0 2 1 2 2 -0 -3 -6 -6 -4 -3 -3 -3 -2 -1 1 1 2 -0 0 -1 -2 -2 -1 -1 -2 -4 -5 -5 -5 -3 -3 -2 -2 0
-2 -2 -2 -1 -1 -2 -3 -0 0 1 1 1 -0 -1 -1 -1 0 -0 -2 -4 -7 -6 -6 -3 -1 -1 -3 -2 -1 2 1 1 0 -0 -0 -2 1 -2 -2 -4 -5 -5 -7 -7 -6 -6 -5
-1 -1 -0 -0 0 -0 -1 -2 -1 -0 1 1 -0 -2 -3 -2 1 0 -0 -3 -6 -7 -7 -8 -4 -2 -1 -3 1 2 1 1 1 2 1 -0 1 1 3 -3 -3 2 -4 -5 -6 -6 -5
-0 -1 1 1 -0 -0 -0 -1 -2 -2 1 1 -1 -3 -0 -0 2 -1 -3 -5 -6 -8 -5 -7 -7 -3 -2 -1 1 0 2 -0 2 1 -0 3 2 2 5 6 8 -1 -5 -5 -4 -5 -6
-1 -2 -1 1 0 -0 -0 -0 -1 -2 -2 0 -0 -2 -2 2 -1 -3 -4 -4 -6 -7 -4 -7 -6 -6 -1 0 1 0 -0 2 0 1 0 1 4 6 8 5 0 -3 -3 -2 -3 -4 -6
-1 0 -1 -2 -0 0 -0 -0 -0 -1 -1 -0 0 -2 -2 -0 -2 -5 -4 -5 -4 -4 -3 -4 -7 -4 -1 1 1 -1 -5 -6 -5 1 -1 1 2 7 6 6 6 -0 -4 -5 -4 2 -5
0 -0 0 -1 -1 -1 0 -0 -1 -0 -0 -0 1 -1 -2 -2 -5 -4 -1 -3 -5 -5 -3 -4 -5 -0 -0 4 5 3 -3 -9 -4 -1 7 6 6 9 8 6 2 -4 -5 -6 3 2 -5
0 -1 -1 -2 -1 -1 -2 0 -1 -0 -1 0 1 -1 -1 -2 -3 -3 -2 -1 -5 -5 -1 -3 -2 1 3 5 4 0 2 -2 -2 -2 3 7 6 9 7 8 8 -2 -2 -0 -1 -3 -3
-1 -2 -2 -1 -1 -0 1 -1 -0 -1 0 0 1 -1 -1 0 1 1 3 2 1 -4 -6 -4 -1 -1 -1 1 2 1 5 7 0 4 -4 5 4 6 3 3 0 -0 -1 -2 -3 -3 -1

GFSGBSN_850_dewp_060.txt.gz
Dewpoint
0 1 3 3 4 3 2 -1 -10 -17 -19 -24 -25 -26 -28 -28 -21 -12 -7 -9 -14 -12 -9 -9 -5 1 1 1 -0 -2 -4 -6 -5 -7 -6 -6 -9 -8 -7 -8 -9 -8 -8 -11 -9 -7 -8
2 2 0 2 3 3 4 3 2 -2 -8 -18 -24 -25 -25 -28 -30 -29 -29 -27 -22 -17 -14 -10 -3 -2 6 3 -3 -6 -5 -7 -4 -6 -4 -6 -9 -11 -9 -8 -7 -8 -8 -8 -1 0 -0
-0 -1 -1 2 2 2 3 4 3 3 2 -4 -16 -22 -25 -25 -29 -31 -32 -31 -29 -22 -14 -6 -1 0 5 1 -7 -4 -3 0 -4 -2 -4 -7 -9 -10 -5 -5 -6 -7 -6 -6 1 -1 1
2 2 1 0 -2 1 2 3 3 3 3 3 1 -6 -16 -24 -26 -29 -31 -32 -31 -13 -6 -4 -2 1 3 -8 -2 -2 -3 -2 -3 -4 -6 -8 -9 -6 -5 -5 -6 -6 -7 -4 3 -1 -2
1 3 3 2 2 0 -1 -0 1 3 3 3 3 2 -0 -14 -24 -26 -29 -32 -30 -17 -10 -7 -5 3 -1 -4 -2 -4 -5 -4 -4 -5 -7 -6 -6 -5 -5 -4 -4 -6 -4 -5 2 1 2
1 0 -0 2 3 2 1 -0 -2 -1 2 3 3 2 2 1 -11 -21 -26 -30 -19 -8 2 3 4 2 -0 -7 -5 -4 -5 -4 -3 -4 -5 -5 -5 -4 -4 -4 -2 -4 -6 -4 -1 2 2
-0 1 0 0 -1 1 2 1 1 -0 -3 1 3 3 2 2 1 -6 -21 -24 1 8 7 3 -2 -4 -7 -4 -5 -8 -7 -5 -2 -3 -3 -4 -3 -2 -4 -4 -5 -5 -5 -5 -0 -2 -1
0 -0 -0 -1 -3 -6 -1 1 1 1 -1 -3 1 2 2 2 2 1 -8 4 -4 4 2 -4 0 0 -1 -2 -2 -3 -9 -4 -2 -2 -3 -3 -0 -4 -6 -6 -4 -4 -7 -7 -5 -2 -1
0 0 0 0 -0 -1 -2 -10 -5 1 -0 -1 -3 1 2 2 2 -1 -5 -2 1 3 3 -4 -8 -10 -9 -4 -2 -3 -7 -4 -2 -2 -2 -1 -3 -4 -5 -4 -3 -4 -4 -5 -4 -1 -3
0 0 -0 -0 -0 -0 -0 -0 -1 -12 -4 -2 -2 -1 2 1 -1 2 -3 -3 -4 3 4 -10 -13 -7 -11 -8 -5 -4 -5 -5 -4 -3 -3 -3 -5 -4 -3 -2 -4 -1 -5 -5 -5 -2 -2
0 0 0 0 0 -0 0 -0 -1 0 -3 -11 -1 -4 -1 2 2 4 5 1 3 7 -4 -14 -11 -4 -5 -7 -6 -5 -5 -4 -3 -3 -3 -2 -3 -4 -2 -4 -4 -2 -3 -2 -3 -4 -2
1 1 1 1 1 0 -0 -0 -0 -1 -0 -4 -2 -1 -3 -0 1 1 5 4 5 5 -3 -10 -2 -2 -3 -4 -6 -6 -5 -5 -4 -4 -4 -4 -6 -6 -5 -4 -5 -4 -3 -2 -2 -2 3
1 1 1 0 1 1 0 0 0 -0 -2 -1 -7 -1 -2 -0 1 1 3 4 4 -1 -15 -13 -2 -1 -2 -1 -3 -4 -3 -3 -2 -0 0 -3 -4 -6 -6 -4 -3 -3 -1 3 8 6 6
1 1 1 1 1 1 1 0 1 0 -1 -1 -1 -3 -0 -1 1 2 4 6 2 -7 -7 -11 -10 -3 0 -1 -1 -2 -4 -3 -3 -4 -2 -0 1 -5 -4 -3 -2 -1 -1 4 6 11 8
0 1 1 1 2 1 1 1 0 1 0 -1 -1 -2 1 1 1 2 4 5 0 -6 -11 -10 -10 -5 -0 -1 -2 -1 -3 -3 -4 -4 -1 -0 -1 -6 -5 -5 -4 -3 2 -1 3 7 9
1 1 1 1 1 1 1 1 0 0 1 -1 -0 1 1 1 0 3 3 2 -1 -7 -9 -10 -9 -6 -1 -0 -1 -1 -2 -4 -4 -5 -5 -2 0 -3 -6 -5 -5 -4 -6 3 2 8 8
1 1 1 0 1 1 1 2 1 0 1 1 1 1 0 1 2 3 3 1 -1 -7 -8 -6 -6 -8 -9 -5 -2 -2 -2 -3 -4 -5 -5 -3 -0 -1 -5 -3 -3 -3 -1 1 1 3 7
1 1 0 0 1 1 1 2 2 1 1 1 1 2 1 1 2 2 2 0 -3 -6 -8 -5 -4 -7 -5 -6 -1 2 -3 -3 -6 -5 -2 -3 -1 1 -2 -5 -5 -4 -1 -0 5 4 5
0 1 1 0 1 1 2 2 2 2 1 1 1 1 1 1 2 2 0 -1 -2 -3 -6 -8 -4 -6 -5 -3 1 -1 1 -4 -4 -4 -2 -2 0 2 0 -1 -3 -2 -2 0 1 1 5
0 -1 -2 -3 2 1 0 1 2 2 1 2 1 2 2 2 -1 0 1 0 -0 -4 -5 -8 -4 -6 -4 0 1 2 0 -2 -3 -4 -4 -1 -0 1 4 4 -1 -1 -2 -0 3 8 5
-1 -2 -3 -3 -3 -2 -1 -3 3 2 2 1 1 1 1 2 2 0 -2 -4 -2 -3 -5 -6 -5 -5 -4 3 3 3 1 1 -2 -3 -2 1 3 1 -1 -3 -3 -2 -2 -3 -3 3 7
-4 -4 -3 -3 -3 -3 -3 -3 -2 2 2 2 -0 2 -1 -3 -1 0 -1 -1 -3 -4 -6 -6 -4 -3 -3 2 2 4 4 5 4 -1 -1 -0 2 1 2 -2 -3 -1 -2 -4 -4 -4 -4
-3 -2 -2 -2 -2 -2 -2 -2 -3 1 2 2 0 -1 -2 -1 0 1 1 -1 -2 -3 -6 -9 -7 -3 -1 -1 1 6 6 5 1 1 2 2 2 3 4 -0 -1 1 -2 -4 -4 -4 -4
-1 -0 0 0 0 -1 -1 -2 -2 -3 1 2 0 -0 1 2 0 1 -2 -2 -3 -4 -3 -8 -9 -4 -6 -3 3 4 4 4 3 1 1 3 3 3 6 5 6 -0 -3 -5 -4 -5 -7
1 -0 -1 -1 -0 0 0 -0 -1 -2 -2 1 0 0 -1 3 -1 -1 -2 -3 -3 -4 -4 -5 -9 -9 -8 2 4 6 6 5 2 2 2 1 4 8 8 6 2 -1 -2 -2 -2 -2 -5
-0 -0 0 0 -0 -2 -1 1 0 -1 -2 0 -0 0 -1 1 0 -3 -3 -3 -2 -2 -2 -4 -8 -8 -7 3 5 7 6 1 5 0 2 3 4 7 9 7 7 3 -1 -5 -3 2 -4
0 0 -1 -1 -1 -0 -1 0 0 0 -0 -1 -0 1 1 0 -1 -3 -2 -1 -4 -3 -2 -3 -5 -1 0 4 5 5 2 -4 -2 1 5 6 7 8 8 9 6 -1 -2 -4 3 3 -2
0 -0 0 -0 -0 0 -1 1 -0 0 -0 -0 -0 0 2 1 -1 -0 1 0 -2 -4 -1 -4 -2 0 4 5 5 3 5 -1 -4 -7 4 7 7 8 8 9 9 -0 -2 0 0 -2 -3
-1 -2 -1 0 1 0 0 0 -0 -0 -0 -0 0 -1 1 1 2 1 0 -1 1 1 -2 -4 -2 2 2 5 3 2 7 6 -0 3 -5 3 3 7 6 5 3 0 -1 -2 -1 1 -0

GFSGBSN_850_dewp_063.txt.gz
Dewpoint
-9 2 -0 -6 -2 2 3 3 3 -0 -4 -8 -11 -22 -25 -26 -29 -31 -31 -30 -30 -28 -24 -21 -17 -10 -9 2 -2 -9 -2 -4 -5 -6 -8 -11 -6 -7 -7 -7 -7 -6 -8 -9 -6 -4 -3
-2 -1 -2 -6 -10 -4 1 3 4 3 3 1 -0 -9 -18 -24 -26 -28 -30 -32 -32 -32 -30 -19 -11 -3 0 5 -15 -2 -4 -6 -7 -4 -6 -7 -5 -8 -9 -8 -5 -7 -6 -7 -5 -2 -2
2 1 1 -0 -1 -5 -2 0 1 3 3 3 3 2 -2 -12 -23 -25 -27 -31 -33 -33 -28 -12 -1 2 3 -15 -16 -2 -2 -2 -3 -4 -4 -5 -5 -7 -9 -4 -5 -4 -4 -5 -2 -2 -3
-0 2 3 3 2 1 1 -2 -1 1 3 3 3 3 3 0 -10 -22 -24 -28 -32 -33 -28 -13 -3 1 3 -28 -21 -10 -5 -3 -2 -2 -2 -3 -6 -8 -7 -5 -4 -3 -4 -3 -4 -1 -1
1 1 -1 -1 3 2 2 2 0 -1 -1 1 2 3 3 2 -1 -10 -21 -29 -31 -31 -23 -5 -4 1 3 -2 -4 -13 -4 -3 -3 -2 -3 -5 -7 -6 -5 -2 -1 -2 -1 -3 -0 0 1
0 1 1 1 0 -0 0 3 2 1 -0 -3 -1 2 3 3 2 -1 -18 -27 -32 -29 -7 6 6 4 -1 -6 -8 -4 -7 -4 -4 -4 -4 -6 -6 -3 -3 -2 1 -0 -1 -4 2 1 2
-0 1 1 -0 1 0 1 -1 1 2 1 1 -0 -3 1 3 2 2 -10 -21 -6 4 7 5 1 -11 -9 -7 -3 -6 -4 -5 -4 -3 -1 -5 -2 -1 -2 -3 -3 -2 -3 -3 -1 0 3
-0 0 0 0 0 -0 -0 -2 -6 -1 1 1 0 -2 0 1 2 1 -1 -11 -5 3 4 3 2 4 0 -7 -0 -2 -6 -5 -5 -2 -2 -2 -1 -3 -4 -4 -3 -2 -2 -4 -3 -0 -1
-0 -1 0 0 0 0 0 0 -1 -2 -9 -1 1 -0 -3 -0 2 -1 -3 -13 -23 -1 4 0 -2 -4 -12 -6 0 -2 -2 -7 -3 -0 -1 -0 -2 -3 -2 -3 -2 -2 -2 -2 -2 -1 -2
-0 -1 -0 -0 0 1 0 -0 -0 0 -1 -6 -4 -1 -2 -1 -1 3 1 3 1 2 6 -1 -8 -5 -6 -11 -4 -10 -3 -8 -3 0 -0 -1 -2 -2 -2 -2 -3 -1 -3 -2 -2 -1 1
-1 -1 -0 0 1 1 0 0 -1 -0 -1 -0 -1 -8 -1 -2 -0 2 4 4 3 4 -2 -12 -12 -9 -10 -10 -8 -5 -11 -4 -4 -1 -1 -1 -1 -1 -1 -2 -3 -2 -1 -2 -0 0 -1
-1 -1 -1 0 1 0 1 1 -0 -0 -0 -1 -0 -2 -1 -2 -1 -4 2 4 5 6 6 -7 -4 -3 -5 -10 -10 -6 -6 -5 -4 -3 -3 -2 -4 -4 -3 -4 -3 -3 -2 -1 -1 0 3
-1 -1 -0 -0 -0 0 1 1 1 1 0 -0 -2 -0 -3 -0 -4 -2 3 3 6 6 -15 -15 0 -2 -2 -4 -8 -7 -3 -4 -2 1 1 -1 -2 -4 -5 -3 -3 -2 -0 5 7 7 6
0 -0 -1 -1 -0 0 1 1 1 1 1 0 -1 -1 -4 -1 -4 -0 3 5 6 -4 -7 -11 -6 -3 1 -2 -2 -3 -3 -1 -3 -2 0 2 2 -3 -4 -4 -1 -0 0 6 6 9 7
1 1 0 -0 -0 -0 -0 1 1 1 1 1 -1 -1 1 -5 -3 1 3 4 1 -4 -8 -8 -11 -8 -0 -1 -0 -1 -1 -2 -3 -3 -0 1 0 -4 -5 -4 -3 0 1 -0 4 7 8
0 1 1 1 1 0 0 1 2 1 1 1 1 1 1 -5 -1 1 3 3 2 -3 -6 -7 -7 -5 -4 -0 1 1 1 -2 -2 -4 -4 -1 2 -2 -4 -6 -3 -2 -3 3 5 9 9
-1 0 0 1 1 1 1 1 1 2 1 1 1 1 1 -3 -0 2 3 1 -2 -2 -4 -5 -6 -6 -4 -3 -4 -1 1 -2 -3 -4 -4 -3 -0 2 -2 -1 -2 -0 -1 -1 3 5 7
-1 -0 0 0 1 1 1 1 1 1 2 1 2 1 1 -3 2 1 1 -0 -3 -5 -4 -3 -5 -5 -4 -2 -2 -2 3 3 -2 -4 -2 -3 0 1 0 -2 -4 -3 -1 -0 5 6 6
-1 -0 0 0 0 0 0 1 1 1 2 1 1 1 1 -2 1 2 -1 0 -2 -1 -3 -4 -4 -5 -5 -3 -1 -1 3 -1 -0 -1 -2 -3 -1 2 2 -1 -2 -2 -2 -1 0 4 6
-1 -0 -0 -0 0 1 1 1 1 1 2 2 1 1 1 2 -0 -2 -0 0 0 -2 -2 -3 -3 -4 -4 -3 -3 1 3 3 3 0 -3 -3 -0 -0 2 2 1 0 -1 -1 1 6 5
-1 -0 -0 -0 1 0 -1 -2 1 2 2 2 0 1 0 2 1 -0 -2 -1 -0 0 -3 -3 -2 -2 -3 -2 -2 2 3 5 4 3 -0 -0 -1 -1 0 -1 0 1 1 -1 -0 3 6
-1 -1 0 0 -0 -1 -2 -1 1 2 2 2 -1 1 1 -2 -0 1 0 -0 -1 -1 -3 -1 -2 -4 -3 -2 -3 2 6 6 7 6 6 1 2 -0 1 0 -0 1 -0 0 -1 -2 4
-1 -1 -2 -3 -4 -4 -4 -4 -2 0 0 2 1 -1 -1 -1 1 2 1 -0 -0 -2 -3 -4 -3 -4 -3 -4 -3 4 5 6 7 7 6 6 4 4 3 1 1 3 1 -0 -0 -1 -1
-3 -3 -3 -3 -3 -3 -2 -2 -3 -3 -1 1 1 0 1 2 -0 1 -1 -1 -1 -2 -2 -4 -4 -5 -6 -3 3 4 4 4 4 6 7 7 4 5 5 4 6 1 -2 -2 -1 -2 -4
-3 -3 -2 -2 -1 -0 -1 -1 -2 -3 -2 -1 0 1 -0 2 -1 -1 0 -1 -2 -2 -2 -2 -4 -5 -8 -8 3 6 6 5 4 6 6 5 6 7 6 5 2 1 -1 -1 0 -0 -4
-1 -1 -1 -0 -0 1 1 0 -0 -2 -2 -2 -0 0 1 0 1 -3 -1 -1 -1 -1 -2 -2 -3 -4 -6 -1 2 4 6 6 7 5 5 6 5 6 7 7 6 3 0 -1 -2 2 -3
0 1 1 0 0 0 -0 -1 0 -0 -2 -1 -0 -0 1 1 -1 -2 -2 -1 -2 -2 -1 -2 -3 -3 -4 -0 2 3 5 3 6 6 5 6 6 7 8 8 7 3 -1 -2 3 2 -2
-1 -1 -0 0 0 0 -0 0 -1 0 0 0 -0 -0 1 1 -0 -2 -1 -1 -2 -2 -0 -2 -1 -1 3 2 2 2 2 2 2 1 5 6 6 7 7 7 8 3 2 1 1 -1 -1
-0 0 -0 -0 0 0 0 -0 0 -1 1 -0 -0 -1 -1 1 2 -2 -2 0 -0 -1 -0 -1 -3 -3 3 2 3 3 2 2 1 1 -1 5 4 5 4 6 4 3 3 -0 3 3 0

GFSGBSN_850_dewp_069.txt.gz
Dewpoint
2 3 3 3 1 -1 -1 -3 -6 -8 -5 1 3 1 -1 -2 -3 -7 -19 -22 -24 -24 -27 -31 -31 -30 -20 -5 -23 -20 -3 -6 -5 -3 -4 -8 -10 -5 -5 -7 -8 -6 -7 -6 -5 -5 -3
1 1 1 2 2 3 2 1 -0 -3 -7 -7 -4 -0 -0 -2 -2 -3 -11 -17 -20 -22 -24 -26 -30 -28 -5 4 -23 -19 -17 -18 -18 -2 -4 -6 -11 -9 -6 -6 -7 -7 -5 -4 -5 -5 2
1 1 -3 -1 -0 0 2 2 2 2 2 -0 -2 -2 -2 -1 -6 -6 -13 -16 -17 -19 -21 -22 -26 -23 -2 -21 -29 -23 -14 -2 -10 -2 -4 -4 -5 -7 -5 -4 -5 -5 -4 -4 -5 -5 -2
1 1 1 1 0 1 -1 -0 -0 2 2 2 1 -1 -2 -2 -3 -8 -9 -23 -20 -17 -18 -19 -23 -9 -2 -29 -29 -29 -25 -2 -1 -3 -2 -1 -2 -4 -4 -4 -5 -4 -4 -2 -5 -4 -4
0 0 1 0 0 -0 0 -0 0 -0 -2 1 2 1 -1 -2 -3 -6 -3 -19 -24 -22 -19 -17 -14 -4 -1 -16 -17 -10 -4 -13 -4 -2 -3 -1 1 -2 -3 -3 -3 -2 -3 -3 -3 -5 -1
-0 0 0 0 -2 -0 0 -0 -1 -1 -0 -2 1 2 1 0 -2 -2 -3 -17 -21 -24 -16 -15 2 -1 -17 -20 -8 -3 -3 -3 -12 -5 -2 -0 -1 -4 -3 -3 -0 -2 -1 -2 -2 -4 0
0 0 0 -1 -2 -1 -1 -0 0 0 -0 -1 -5 -1 2 1 -1 -5 -10 -13 -9 3 4 -7 -2 -7 -11 -4 -7 -5 -2 -2 -5 -3 -1 -2 -2 -1 -2 -3 -3 -3 -2 -1 -3 -4 0
-0 -0 0 -1 -2 -1 -1 -1 -1 0 0 0 0 -2 -2 1 -0 -6 -4 -0 -1 2 3 -1 -1 2 -8 -5 3 -7 -3 -2 -3 -1 -2 -2 -0 -3 -4 -3 -2 -2 -1 -1 -2 -4 0
-0 -0 -0 -1 -5 -1 -2 -2 -1 -1 0 1 1 1 -1 -7 -2 -7 -3 1 2 3 3 2 -10 -13 -11 -6 1 -5 -7 -3 -3 -2 -1 -0 -1 -3 -4 -3 -2 -1 -1 -1 -1 -3 0
-1 -1 -0 -2 -2 -2 -2 -2 -1 -0 1 0 0 -0 -0 -5 -7 -5 -0 2 1 4 3 -4 -1 -7 -6 -4 3 -9 -6 -4 -4 -2 -2 -1 -2 -1 -2 -2 -2 -1 -2 -2 -1 -0 2
-1 -1 -1 -2 -2 -2 -2 -1 -1 -1 1 1 0 -0 -1 -1 -9 -3 2 2 0 4 -14 -16 -4 -8 -5 -5 -10 -7 -9 -5 -3 -3 -2 -0 0 -0 0 -1 -2 -1 -1 -1 -0 0 -0
-1 -1 -2 -2 -2 -2 -2 -1 -2 -1 1 1 0 -1 -0 -0 -1 -9 -9 -4 3 5 -1 -10 -7 -3 -3 -5 -8 -4 -4 -6 -8 -4 -3 -3 -2 -1 -1 -2 -2 -2 -1 -1 1 1 4
-2 -2 -2 -5 -3 -3 -2 -2 -1 -1 0 1 1 -0 -0 -0 -0 -4 -2 0 5 4 -8 -13 -4 -5 -5 -5 -6 -5 -4 -4 -2 -1 -0 -3 -1 -3 -3 -1 -2 -1 -0 4 4 4 4
-1 -2 -2 -4 -4 -3 -2 -2 -0 -0 -0 1 1 1 -1 -1 -1 -3 -3 3 5 -2 -6 -10 -9 -9 -2 -6 -7 -8 -4 -5 -3 -2 -1 -1 1 -2 -2 -2 -1 -0 0 4 5 6 4
-2 -1 -2 -3 -6 -5 -2 -0 0 -0 -0 1 2 2 1 -1 -1 -1 -1 3 1 -0 -4 -3 -6 -11 -7 -3 -1 -6 -5 -4 -8 -3 0 0 -1 -3 -3 -3 -2 -0 2 -1 2 5 7
-2 -2 -2 -4 -5 -4 -3 -0 0 0 0 1 2 2 1 0 -0 -1 1 2 1 -1 -2 -1 -2 -3 -2 -3 -1 0 1 -1 -4 -7 -4 -0 2 -1 -2 -3 -3 -1 -1 3 4 6 8
-3 -4 -4 -6 -6 -3 -2 -1 0 1 1 1 2 2 1 0 1 -0 -0 0 -1 -1 -2 -1 0 -1 -1 -2 -3 -2 1 -1 -0 0 -4 -3 0 1 -1 -0 -1 -0 -0 0 3 5 6
-5 -4 -4 -8 -5 -3 -2 -1 -0 1 1 1 2 2 1 1 1 -1 -2 -2 -3 -3 -3 -2 -2 -1 -1 -2 -3 -2 -1 -3 1 3 2 -2 0 1 -0 -3 -3 -3 -1 1 4 4 6
-5 -4 -5 -7 -4 -3 -3 -1 -1 0 1 2 1 1 1 0 1 -1 -4 -3 -2 -2 -3 -2 -2 -2 -4 -4 -4 -3 -1 -2 2 2 3 3 3 3 2 -1 -2 -1 -2 -1 1 3 4
-4 -4 -5 -6 -3 -3 -3 -1 -1 0 1 1 -0 1 1 1 -0 -2 -2 -3 -1 -3 -2 -2 -1 -2 -1 -2 -3 -2 -2 -3 -1 4 4 4 5 6 4 1 -1 0 -1 -1 0 3 2
-5 -6 -6 -5 -4 -3 -2 -1 -1 0 0 1 -0 0 1 1 1 -2 -3 -3 -2 -1 -3 -2 -1 -2 -1 1 -1 -2 -4 -5 0 4 5 6 7 6 5 4 1 -1 -1 -1 -1 0 2
-4 -3 -3 -3 -2 -2 -2 -1 -1 -0 -0 0 -1 0 1 0 1 -1 -1 -1 -2 -3 -3 -1 -1 -1 -2 -1 -1 -1 -3 -2 2 4 5 6 7 7 6 3 1 0 -2 -0 -0 -1 -0
-3 -3 -2 -2 -2 -2 -1 -1 -0 -0 -0 0 0 0 1 1 1 1 -0 -1 -1 -2 -2 -4 -2 -1 -1 -2 -3 -3 -3 -3 -2 5 5 6 6 7 7 5 5 5 1 -1 -2 -0 0
-2 -2 -2 -2 -1 -1 -1 -1 -0 -0 -0 0 1 1 1 2 -0 0 -0 -1 -2 -2 -2 -3 -3 -1 -3 -3 -3 -1 -0 2 5 5 4 6 5 6 7 5 8 4 -0 -2 -1 -2 -1
-1 -1 -1 -1 -1 -1 -1 -0 -0 -0 -0 -0 1 1 1 2 0 -1 -1 -1 -2 -3 -1 -3 -4 -4 -3 -3 -1 0 1 3 2 4 5 4 4 6 6 6 5 1 1 0 0 0 -2
-3 -2 -3 -2 -1 -1 -0 -0 -0 -0 0 1 0 0 1 1 1 -1 -1 -1 0 -1 -1 -2 -2 -2 -2 -1 -1 1 1 1 4 5 5 5 4 4 6 7 6 -2 0 -3 -0 3 -1
-1 -2 -2 -3 -3 -4 -4 -0 -1 -1 -1 -0 -0 -0 -0 0 0 -0 -1 -1 -1 -1 -1 -1 -2 -1 -2 -1 1 1 1 -1 3 5 5 5 5 6 6 7 5 2 0 2 7 4 1
-0 -1 -1 -0 -2 -2 -2 -3 -3 -3 -3 -1 -0 -1 -1 -0 0 1 -0 -2 -2 -2 -1 -2 -1 -1 -0 -0 1 0 -0 1 1 2 4 4 5 4 6 6 4 3 4 8 4 3 3
1 0 0 1 0 -0 -0 -2 -3 -2 -2 -1 -0 -1 -1 -0 -0 1 0 -2 -3 -3 -3 -2 -2 -1 -1 0 -0 -1 -0 -1 1 3 1 3 2 3 3 3 1 -1 2 -1 3 4 3